GFSSGP_925_rhum_024.txt.gz
RH
4 9 15 13 16 13 13 16 17 20 22 18 17 18 29 37 45 64 40 44 60 77 83 76 76 79 78 77 78 79 76 71 72 77 80 81 83 82 81 79 76 74 72 78 86 78 75 72 68
6 18 10 11 16 16 16 16 20 20 18 13 16 16 28 41 36 35 37 44 49 67 78 73 76 80 82 84 84 85 83 81 76 72 76 80 80 79 78 77 73 70 71 73 86 85 77 73 74
10 15 11 13 13 14 17 19 23 17 14 16 18 24 26 32 32 34 37 42 47 70 66 67 63 64 65 64 65 69 74 73 76 79 81 80 79 78 76 78 83 84 79 75 74 73 72 74 73
16 11 10 13 13 12 13 19 17 17 18 15 19 32 27 27 33 34 35 40 46 65 52 44 35 34 33 35 41 51 60 68 69 72 80 87 89 89 88 84 73 68 75 76 78 72 67 65 63
14 11 13 13 16 16 15 15 15 18 17 15 16 35 38 33 33 31 31 32 39 50 32 30 33 35 40 44 48 48 50 51 51 54 58 61 61 62 62 65 68 70 71 66 59 60 60 61 63
13 9 14 14 17 16 16 14 14 18 16 14 20 32 38 33 31 28 26 28 33 42 34 33 35 38 40 44 51 54 53 54 53 53 53 54 56 57 58 59 58 57 55 52 50 51 52 55 57
13 14 15 15 17 17 17 12 12 13 13 14 13 32 35 32 33 28 26 28 33 36 44 46 36 39 40 43 47 51 53 52 54 54 53 51 53 53 56 60 54 49 45 44 46 47 47 45 44
8 10 12 13 15 16 10 11 10 11 16 11 14 25 35 34 33 29 26 26 30 34 39 46 50 52 56 51 36 42 48 47 51 50 53 65 70 67 70 72 56 49 46 45 42 38 35 34 31
6 9 12 11 12 9 7 7 6 8 12 11 15 20 28 34 31 28 28 28 32 35 40 39 42 44 52 52 47 57 46 64 64 68 60 68 68 74 76 63 61 61 58 56 54 53 51 43 45
6 10 8 6 6 6 6 6 6 10 11 12 19 22 30 30 30 30 28 30 34 38 41 44 44 45 41 37 48 52 49 58 61 62 62 64 59 62 58 64 65 64 58 57 61 55 53 54 57
6 8 6 5 6 5 5 5 6 8 9 12 15 26 28 29 29 29 27 29 32 35 35 47 51 49 51 40 38 42 45 46 57 62 59 59 57 58 56 54 59 51 53 58 53 54 53 59 57
7 5 5 5 5 5 5 5 6 6 8 8 12 15 26 27 27 27 27 26 27 33 34 51 56 56 51 46 42 38 43 46 49 52 56 54 53 53 51 50 49 45 43 44 46 46 47 47 54
6 5 5 5 6 7 7 6 7 7 8 8 11 15 23 25 26 26 25 24 24 30 32 39 51 65 56 47 44 45 43 48 50 50 52 55 55 54 53 51 49 46 43 40 42 43 44 47 47
7 7 7 7 8 8 8 9 9 7 7 7 11 15 19 23 23 24 23 23 24 26 30 37 47 61 60 47 47 45 48 46 46 44 47 54 56 57 53 50 49 47 44 44 44 46 51 52 52
8 10 10 10 10 9 9 10 10 8 7 7 9 12 15 17 17 21 22 23 23 26 29 34 59 55 58 49 45 41 40 41 39 40 44 48 52 50 51 51 48 48 47 47 48 48 48 47 48
9 10 14 11 10 11 11 14 8 8 9 9 9 10 10 15 14 17 21 22 23 25 31 44 40 51 61 49 43 37 37 39 38 37 40 43 48 51 52 53 51 50 50 50 52 51 51 50 47
11 13 13 14 9 11 12 13 9 9 11 11 10 11 11 12 14 17 19 22 24 29 30 31 38 50 54 49 44 40 42 42 38 40 39 42 44 44 48 51 52 51 51 53 52 52 51 53 53
14 9 10 11 12 9 9 10 10 11 11 12 11 10 12 12 14 23 25 25 29 35 35 36 46 51 50 46 44 38 36 36 33 34 37 42 45 48 50 49 47 45 45 46 46 47 50 53 56
10 10 10 10 12 13 11 11 12 12 12 14 13 13 16 26 26 30 29 32 36 38 44 44 50 45 40 38 34 31 34 34 33 35 39 44 43 46 44 45 45 44 46 46 47 49 51 53 53
12 14 14 13 13 14 13 14 13 14 16 15 16 17 25 25 28 31 36 36 35 34 33 34 36 39 38 37 35 37 38 38 38 36 40 38 40 44 47 47 48 48 48 51 51 51 54 56 54
14 16 22 20 16 14 15 16 16 16 16 18 19 19 20 23 26 30 36 40 40 38 36 36 38 40 45 36 37 39 37 36 37 38 39 43 48 48 43 46 42 42 46 55 55 55 56 66 64
19 21 22 20 20 21 15 22 18 18 19 20 20 22 22 22 24 28 34 41 43 43 40 39 39 39 43 46 45 46 47 47 48 48 48 46 45 42 40 38 39 42 50 57 60 64 77 82 87
21 22 22 22 23 21 17 22 21 18 22 23 24 25 26 27 28 30 34 40 45 47 46 43 38 38 42 46 48 51 52 53 50 46 45 45 45 46 44 43 44 49 57 58 72 83 82 79 83
19 24 22 22 25 43 21 20 31 20 22 25 27 28 29 29 29 29 30 35 43 41 42 42 39 39 40 42 44 46 47 48 48 50 49 53 54 50 47 47 52 52 63 75 77 76 75 80 82
21 25 48 61 52 52 25 26 32 23 23 25 30 31 31 31 32 30 30 31 33 37 39 42 44 44 41 42 44 47 50 53 53 54 58 59 55 52 52 52 57 68 71 75 77 77 80 79 85
26 25 60 56 62 47 23 23 34 25 25 26 26 27 28 30 30 29 29 30 32 35 37 39 43 44 42 45 53 52 52 54 57 58 55 53 54 55 54 68 74 77 82 83 84 84 87 87 86
27 37 24 38 58 60 23 32 26 25 27 26 27 26 29 29 30 29 29 30 32 34 36 40 42 40 41 46 49 51 54 52 55 54 52 53 53 55 59 59 70 75 82 88 90 80 76 82 90
23 22 41 52 64 47 23 22 39 32 31 28 26 26 28 28 30 30 28 31 35 38 40 41 39 40 43 45 46 46 46 47 51 52 51 52 59 59 60 67 73 80 87 90 90 86 86 84 84
26 28 30 26 42 54 52 31 22 25 26 28 26 26 30 31 31 31 31 36 37 40 42 40 39 41 42 44 42 41 42 44 48 54 60 72 74 67 66 76 90 87 81 88 82 79 76 73 76
23 27 28 63 48 57 59 44 22 22 25 26 28 29 30 29 31 33 34 36 37 38 40 39 38 41 43 42 39 39 42 58 64 65 63 67 78 66 64 61 73 87 88 84 79 69 59 61 59

GFSSGP_925_rhum_030.txt.gz
RH
5 5 14 17 20 23 23 20 29 34 50 48 45 55 63 60 60 85 97 85 85 82 86 79 76 75 74 73 71 72 76 78 79 83 85 84 82 81 78 75 70 68 72 91 81 65 63 66 69
6 9 18 19 24 27 32 25 40 40 44 43 43 48 60 78 78 95 94 96 77 77 81 80 79 78 79 76 75 74 74 77 80 81 80 80 78 73 73 75 76 72 63 60 62 63 64 64 68
6 10 17 20 25 28 39 26 29 32 34 37 46 43 46 72 81 82 84 86 80 78 82 78 74 76 74 70 66 68 72 75 76 76 74 72 71 73 72 63 57 56 57 56 49 47 47 51 53
16 16 15 18 20 19 30 26 33 37 39 40 44 51 42 48 61 81 86 80 71 77 71 66 56 51 46 48 56 61 62 63 66 71 72 69 64 55 54 54 54 54 45 35 31 31 29 30 32
22 20 19 18 22 24 22 24 29 44 48 46 42 51 51 70 77 80 72 58 48 57 46 39 34 33 36 42 45 46 49 51 52 50 50 49 49 46 45 43 38 33 29 28 28 27 26 27 28
19 18 20 21 29 22 18 21 40 48 46 44 46 47 50 69 71 68 51 38 29 34 37 34 31 33 39 40 40 41 42 44 45 46 44 45 43 46 42 41 36 33 30 29 28 27 26 26 29
19 22 21 18 19 29 20 17 32 48 47 50 41 51 46 44 54 44 28 26 29 31 30 31 32 30 26 31 38 41 43 43 41 42 58 58 60 54 54 55 51 48 46 45 43 48 49 45 38
17 17 17 15 22 18 15 15 17 28 38 39 37 53 46 39 40 27 24 24 26 30 43 46 45 38 23 24 29 34 38 46 57 62 62 61 59 58 60 60 59 56 57 55 54 51 52 51 51
12 18 19 15 16 14 10 15 13 19 32 31 34 44 33 38 38 43 43 36 38 41 49 52 48 45 42 32 45 54 58 57 62 65 65 65 62 59 62 64 60 56 57 58 51 49 52 53 52
16 18 14 11 12 10 8 10 12 32 48 54 51 39 37 37 41 44 47 52 52 53 53 50 44 48 47 48 46 55 56 60 60 65 65 62 65 62 64 63 57 54 54 50 47 47 50 50 52
12 10 8 9 8 8 9 10 11 36 48 50 49 44 40 35 35 39 42 43 47 50 53 49 43 47 49 51 51 52 58 64 64 61 62 63 64 66 63 58 50 48 45 43 45 47 49 46 45
8 7 7 8 7 7 8 8 10 15 32 42 40 39 41 40 37 34 37 39 50 50 49 48 42 51 48 47 51 54 57 63 65 60 60 58 65 56 53 51 46 49 47 48 47 47 46 45 46
8 7 8 10 10 8 7 9 10 14 34 40 39 38 39 37 36 32 31 34 46 51 48 45 44 51 47 44 47 50 53 60 65 60 56 50 56 54 52 52 52 51 50 51 53 51 49 46 48
7 8 8 8 10 9 10 11 10 12 36 41 38 39 38 38 36 35 34 34 43 48 49 46 41 46 44 46 45 43 51 56 54 56 51 41 49 53 51 54 50 51 53 52 52 51 50 51 53
9 9 10 9 10 10 12 13 14 11 36 40 39 38 38 37 36 36 34 33 37 47 51 51 51 57 51 47 47 44 48 49 50 51 48 44 44 45 51 47 48 50 50 49 49 50 50 49 52
13 16 17 13 12 11 12 17 13 12 24 39 40 38 37 38 36 36 35 34 36 49 56 65 60 53 52 46 49 46 46 46 41 46 46 50 51 52 52 50 49 49 44 43 45 45 47 48 48
20 19 20 16 15 14 15 18 16 13 15 20 23 40 44 54 55 53 52 52 52 61 66 72 61 56 44 51 54 48 44 42 43 45 49 52 50 49 50 50 46 46 46 45 45 46 46 44 42
24 20 21 20 15 14 14 18 19 15 17 33 48 55 55 55 54 53 54 61 64 65 74 76 70 63 64 64 53 48 45 40 44 48 49 51 51 49 47 48 50 49 47 47 46 46 46 48 50
14 21 23 18 15 14 20 23 23 32 47 52 54 55 56 57 54 53 46 43 45 49 53 48 49 47 46 42 41 40 48 50 52 51 49 47 46 45 43 42 42 42 42 46 52 55 51 55 60
22 27 25 20 19 16 23 27 33 36 45 49 52 55 58 58 54 53 48 45 47 47 46 44 39 38 41 42 44 44 48 48 48 47 47 47 46 45 44 44 43 42 44 46 51 54 60 72 77
35 32 28 24 23 21 26 28 37 35 39 42 47 52 54 57 62 57 54 48 42 42 42 41 40 40 40 40 40 41 41 42 46 51 50 50 50 50 50 47 41 36 41 51 54 61 69 76 76
37 27 26 26 30 28 23 41 30 38 42 42 47 55 58 57 57 56 53 47 43 41 40 41 42 43 43 44 44 45 47 48 50 49 51 52 52 52 52 50 40 43 55 63 70 80 79 73 69
30 23 27 27 33 36 35 41 33 40 47 48 50 52 57 60 59 62 54 46 42 40 40 42 42 44 45 46 48 50 50 55 58 56 55 55 53 50 45 40 54 65 72 77 80 78 79 80 79
22 28 43 40 45 61 43 43 43 46 45 48 46 49 52 57 59 57 50 46 45 45 44 43 46 46 45 46 50 53 56 57 56 56 54 51 48 47 49 57 62 59 63 73 81 87 86 85 86
32 50 71 68 77 69 49 56 53 42 42 43 52 52 50 51 55 60 56 51 51 48 47 46 47 50 50 49 50 52 54 54 53 52 50 50 52 56 58 61 63 68 72 76 79 79 81 84 87
31 46 74 57 76 65 44 58 57 47 42 44 42 45 45 46 48 52 49 50 49 46 44 45 46 48 48 51 52 49 49 45 47 53 54 61 62 64 62 62 66 71 76 80 82 80 82 82 84
32 45 36 65 69 75 57 48 40 42 43 41 44 46 47 43 49 53 48 45 45 44 44 42 44 47 48 47 44 41 42 44 46 51 58 60 57 48 62 71 65 66 72 77 83 83 83 77 70
28 29 54 70 60 59 52 55 61 55 50 46 44 44 46 49 53 54 48 47 48 49 45 44 44 45 44 43 40 39 39 42 47 53 55 54 43 38 50 63 60 59 59 59 59 58 63 64 62
37 41 44 49 69 73 79 57 40 48 50 46 43 47 49 50 52 56 52 46 43 41 39 42 45 44 43 41 39 38 39 41 44 44 47 50 44 40 47 57 51 41 45 50 51 54 56 63 58
27 36 48 74 51 81 81 62 42 46 46 47 43 47 50 54 59 58 53 49 45 41 39 43 43 42 40 38 38 37 38 41 41 42 45 49 47 47 59 52 42 39 40 42 43 46 52 56 56

GFSSGP_925_rhum_033.txt.gz
RH
9 7 14 17 20 27 26 22 28 43 56 53 62 58 72 84 72 81 92 94 85 96 90 78 72 71 70 70 71 72 74 75 78 81 82 82 81 79 76 72 75 83 96 95 89 80 65 62 61
10 15 17 20 23 30 39 28 41 52 54 47 52 60 69 88 88 98 96 98 97 96 88 82 78 75 73 73 74 76 78 80 80 80 81 80 77 77 77 75 68 56 58 65 55 51 49 49 48
14 12 16 20 26 26 38 32 52 48 45 41 49 47 53 94 88 88 96 97 99 96 89 84 79 77 75 72 71 72 73 74 77 79 77 75 71 62 52 47 47 48 44 35 31 32 34 40 46
20 15 16 19 20 19 28 36 46 47 44 42 46 60 48 66 82 88 95 92 92 93 88 82 78 69 63 64 66 66 70 72 72 69 65 59 48 43 42 42 37 28 25 26 25 26 28 31 32
20 19 19 19 23 26 26 31 39 47 49 46 44 54 64 87 81 82 91 92 85 88 77 64 50 49 52 56 55 55 52 54 56 52 47 39 38 40 41 37 31 27 25 25 24 25 26 27 28
20 19 21 25 38 29 23 43 46 49 47 48 53 55 71 93 87 92 88 82 67 51 42 37 39 40 40 40 41 44 46 47 44 39 36 38 44 42 45 40 38 35 34 31 42 44 45 40 33
19 22 20 19 42 34 23 32 46 46 49 49 44 63 71 77 87 79 69 49 34 33 34 36 35 34 35 39 42 43 40 40 38 40 50 56 52 54 56 55 52 51 53 50 49 50 49 49 49
21 18 17 17 34 36 30 18 37 44 51 39 40 61 78 58 76 61 40 33 35 34 33 32 27 27 37 40 39 36 33 37 40 58 60 60 59 60 61 60 54 54 54 52 48 47 48 48 48
14 21 20 21 22 17 18 18 18 34 47 40 41 42 47 60 64 52 49 49 46 42 43 42 34 28 30 27 34 41 47 59 63 64 64 64 62 63 64 63 59 55 54 53 50 50 51 51 51
20 24 20 14 19 19 13 31 31 43 51 56 49 44 51 55 53 54 54 59 53 49 50 48 42 39 31 46 52 58 58 61 66 66 65 62 65 63 64 63 63 59 56 54 53 54 54 53 50
15 12 9 11 11 10 12 22 25 54 56 51 47 48 48 51 52 48 44 43 40 47 55 51 48 45 45 45 55 56 60 60 62 65 63 64 66 68 66 62 59 57 54 50 52 51 53 50 50
8 8 9 8 10 9 13 11 33 27 49 45 38 42 44 47 49 48 48 49 47 50 53 52 52 48 50 52 50 54 57 61 61 61 62 60 62 65 59 58 52 53 53 53 54 54 54 54 54
8 8 10 10 9 8 9 12 14 15 46 42 39 39 41 42 43 41 39 44 49 55 54 50 52 52 50 52 52 53 55 60 63 64 59 58 60 57 56 55 54 52 51 52 53 53 52 50 46
8 8 9 10 10 10 12 12 13 23 52 46 42 40 38 37 36 38 41 44 48 53 53 50 53 54 49 49 49 50 53 55 62 64 60 56 57 54 50 52 52 50 52 53 52 51 48 46 46
9 10 10 10 10 10 14 14 16 27 49 48 45 42 42 37 37 38 38 42 48 54 51 52 56 56 49 51 52 52 53 56 60 60 60 55 55 55 58 55 56 54 52 48 46 45 45 44 43
15 16 16 12 12 12 13 17 13 41 49 50 47 45 49 63 60 46 38 37 44 54 52 54 59 50 63 60 57 54 56 54 56 62 59 61 63 60 59 55 52 49 48 47 47 46 44 41 41
22 20 18 17 14 14 14 17 16 30 47 46 56 60 64 64 62 71 65 48 44 58 59 77 76 68 66 69 60 53 48 48 51 56 60 58 54 52 51 50 50 48 46 46 46 44 46 48 44
19 20 20 20 17 17 16 18 26 19 33 62 70 67 64 65 65 62 73 82 89 83 77 84 83 74 68 54 47 44 48 51 50 51 51 49 48 46 45 44 42 42 41 41 42 48 46 54 62
19 19 23 19 18 19 24 36 45 56 63 71 70 65 63 63 64 64 63 62 69 76 75 73 69 70 60 47 49 49 50 49 48 48 47 47 45 44 44 44 43 44 42 36 39 44 46 59 67
26 25 24 22 23 26 38 44 53 55 62 65 67 67 64 63 62 63 57 52 52 49 43 41 41 41 41 42 43 45 48 48 46 46 44 45 46 48 49 50 50 48 42 39 53 63 74 75 77
37 30 29 25 25 27 32 40 51 46 54 57 62 63 61 60 64 70 67 53 44 41 39 39 38 38 40 41 42 43 45 50 46 49 51 53 53 53 52 48 42 39 46 62 69 76 82 82 74
35 28 26 26 28 34 27 54 38 44 53 59 63 68 67 65 73 71 65 56 46 45 44 42 42 42 43 43 42 41 42 46 56 58 57 55 54 50 46 41 39 46 52 61 67 76 76 77 78
30 26 27 28 37 39 36 53 44 50 57 58 60 64 63 61 62 61 55 49 47 46 45 45 46 47 48 47 47 48 50 54 59 57 55 53 49 47 48 51 54 56 54 58 71 77 82 82 83
23 34 47 52 49 60 43 46 51 56 55 56 55 60 59 60 60 59 53 50 50 49 48 48 46 46 47 48 50 52 54 58 58 55 51 48 48 48 47 52 56 60 63 68 74 82 83 83 87
36 49 69 70 75 70 50 57 53 43 46 50 57 58 58 59 65 68 61 57 54 51 51 52 49 51 52 51 52 53 54 55 50 46 45 46 47 48 53 57 60 63 66 73 80 82 79 80 83
36 46 72 56 73 64 50 68 60 52 51 50 50 53 54 56 56 58 55 56 51 50 50 50 53 51 52 51 52 51 46 43 43 43 44 48 53 56 58 48 62 64 68 74 76 77 71 73 64
34 45 39 72 73 74 64 52 48 47 54 52 53 50 52 48 54 60 56 53 53 50 47 45 48 51 55 50 44 42 42 41 40 41 42 46 52 56 42 54 64 63 70 73 70 68 64 72 66
29 34 56 71 61 58 58 64 69 57 59 54 51 57 55 58 61 64 57 52 50 47 43 44 47 50 45 44 43 41 40 40 41 45 46 48 54 51 45 57 63 62 59 59 68 64 63 75 73
37 42 51 56 72 75 78 63 42 54 53 58 54 57 59 63 65 61 54 48 45 43 41 45 47 44 43 43 40 39 39 41 45 48 49 50 54 54 59 64 64 60 45 41 42 44 47 52 56
30 38 47 65 48 84 80 62 42 52 53 51 56 58 64 62 61 60 54 50 47 44 41 46 45 44 40 40 40 42 44 45 49 52 52 52 56 60 70 74 73 62 54 44 42 43 44 53 56

GFSSGP_925_rhum_036.txt.gz
RH
8 10 14 18 18 25 25 21 29 47 59 61 62 70 82 92 81 84 100 88 84 88 87 79 74 72 70 70 72 74 75 73 74 75 75 76 74 74 71 73 78 80 84 78 51 46 46 49 52
12 16 20 20 22 24 30 25 40 58 64 67 64 66 80 95 84 97 95 98 95 88 87 84 78 73 74 75 75 75 75 76 76 77 76 72 73 73 69 57 50 57 66 67 39 36 38 43 47
14 19 17 21 26 24 30 36 56 55 50 50 53 50 68 94 86 94 98 99 95 93 90 85 78 76 76 75 72 75 74 75 74 71 70 69 60 49 44 44 47 41 35 42 32 29 29 28 29
20 18 18 20 20 19 26 52 48 50 42 48 50 62 62 77 85 87 99 99 99 95 94 88 83 75 68 67 71 67 66 66 64 62 54 48 43 43 42 38 31 29 28 28 28 28 28 28 28
24 22 21 21 21 24 21 45 53 50 49 49 47 60 72 94 83 95 99 100 97 98 95 86 75 62 59 61 62 64 61 55 53 49 44 41 40 39 35 32 29 28 28 31 39 43 43 37 36
21 22 24 35 39 33 45 42 49 50 51 53 60 66 85 98 90 98 96 97 93 90 83 70 58 52 51 54 52 48 47 47 48 42 40 39 40 42 41 40 40 45 42 48 46 46 47 47 50
20 23 23 37 39 35 40 37 54 50 50 51 52 83 91 95 99 95 97 94 84 64 51 49 45 41 43 41 40 44 46 46 44 42 48 47 51 55 54 52 51 51 50 46 48 48 48 48 49
23 19 21 24 40 39 27 36 46 46 52 41 53 93 97 82 96 97 93 74 53 44 40 35 34 36 38 41 43 45 44 44 44 55 57 57 59 60 61 56 54 55 55 51 50 51 49 48 48
16 22 23 24 38 36 29 33 22 40 46 46 45 66 68 81 89 82 69 60 52 44 35 33 34 38 38 41 42 44 41 42 55 60 62 61 62 64 64 63 59 58 57 56 54 53 53 52 49
21 24 20 18 21 33 30 32 42 47 52 51 56 64 73 81 78 69 67 63 54 45 44 40 34 30 30 34 37 44 48 58 61 62 64 65 66 67 68 68 64 59 54 52 51 52 53 53 50
18 20 13 12 20 15 25 29 39 55 54 52 62 70 69 70 61 60 55 50 43 45 48 45 38 31 34 42 49 52 56 62 64 67 67 65 66 66 66 65 63 57 53 51 51 52 53 54 55
14 13 9 10 13 16 30 23 48 38 36 45 53 59 60 58 53 50 48 45 48 50 48 48 44 40 40 51 54 57 60 60 64 65 65 60 63 66 61 58 55 54 54 54 56 56 54 53 51
10 8 11 10 10 15 13 19 40 20 52 44 50 51 52 48 48 42 33 37 43 50 52 50 51 49 50 49 55 62 61 63 65 67 66 63 58 64 57 56 59 59 59 58 56 54 50 47 45
9 10 10 10 10 11 13 15 14 30 53 48 48 51 51 48 49 48 47 45 44 47 51 54 54 61 60 61 64 61 64 66 68 70 73 70 66 64 64 64 63 61 56 51 48 46 46 45 43
10 10 11 11 11 13 13 13 16 48 49 49 46 46 46 41 40 42 43 45 45 45 51 58 62 72 71 69 66 66 64 65 70 78 77 68 70 71 66 62 57 52 50 48 48 48 46 43 40
15 16 14 12 11 14 11 15 15 60 54 58 54 53 62 66 67 53 42 40 43 50 60 72 71 74 78 77 76 66 67 59 67 74 70 68 65 62 58 53 50 48 46 44 43 42 41 43 44
21 20 18 16 14 14 14 17 28 54 59 58 57 68 68 69 66 68 61 44 43 59 68 79 82 81 84 85 72 64 58 54 64 62 58 55 52 49 48 46 44 43 42 42 41 40 40 40 42
20 19 19 19 17 17 20 36 52 48 54 71 76 76 75 75 74 75 92 89 83 89 85 88 90 95 79 88 57 54 52 51 50 50 48 47 46 45 44 45 46 47 49 47 42 41 41 52 74
18 19 20 20 19 35 57 63 67 69 74 80 79 78 76 75 70 75 87 89 88 87 84 81 80 91 68 58 51 49 49 47 46 46 45 44 45 47 49 50 51 48 44 40 49 58 66 75 78
25 26 25 24 28 38 52 59 64 68 73 77 78 76 74 72 72 72 67 60 61 65 68 65 60 53 48 43 42 40 42 45 44 46 47 49 51 52 52 50 45 36 31 31 46 65 76 79 72
36 30 29 27 29 34 38 48 60 57 66 68 69 68 66 70 76 80 70 60 48 43 41 40 39 37 35 34 37 39 42 46 48 51 52 53 54 53 50 45 36 34 36 40 46 57 69 75 74
33 29 27 29 28 37 30 45 48 58 66 67 70 72 70 68 72 72 64 53 42 41 39 38 38 38 40 42 42 43 44 48 54 57 56 55 53 49 46 39 40 45 49 51 51 58 68 77 78
30 32 33 33 42 37 38 51 55 64 71 71 70 72 71 72 74 69 59 51 50 46 44 43 43 44 46 47 46 46 48 53 59 57 56 53 48 44 42 43 48 55 60 65 70 74 82 83 83
29 41 50 55 53 62 46 46 54 68 64 66 63 68 68 67 61 60 56 52 53 51 48 50 51 51 50 49 50 52 53 57 58 56 50 44 38 38 43 48 53 54 58 64 68 80 87 84 83
41 50 70 71 75 70 50 55 53 46 53 59 65 67 66 64 65 67 64 61 56 52 54 53 52 53 53 53 53 55 56 55 50 45 42 39 39 41 45 53 56 50 57 65 75 80 80 79 83
42 44 73 58 79 68 52 64 57 55 48 55 58 62 63 62 65 64 61 60 62 60 56 53 53 53 53 52 52 50 46 44 43 42 42 43 45 48 51 54 55 56 63 61 67 69 65 69 71
39 47 42 75 73 76 66 57 54 59 61 60 60 59 62 59 58 63 63 60 58 52 48 50 52 53 54 50 45 44 44 43 42 44 45 45 46 49 56 60 55 68 72 74 77 74 66 65 66
29 41 56 71 57 56 61 64 73 64 65 61 60 62 62 65 69 69 63 59 56 49 47 46 48 52 49 45 45 43 41 43 45 46 45 49 51 54 64 60 64 74 81 80 65 68 66 62 62
40 45 56 60 73 73 79 67 54 60 59 61 61 64 66 71 68 64 57 50 46 42 39 43 49 46 44 45 44 43 44 46 47 49 54 60 65 62 64 66 71 71 78 64 68 65 46 46 52
33 40 45 58 43 84 81 64 46 60 59 61 62 65 70 69 67 62 55 50 46 43 40 46 47 46 51 48 45 46 44 44 49 45 42 37 38 40 58 71 77 78 73 72 72 52 48 50 57

GFSSGP_925_rhum_042.txt.gz
RH
18 16 12 15 16 11 13 15 27 43 57 47 42 44 49 55 58 70 87 78 75 79 84 90 81 71 69 65 66 70 72 74 74 74 74 73 71 69 74 75 64 78 80 77 67 43 36 30 28
15 14 12 12 13 12 12 12 27 47 51 46 44 44 46 63 62 89 78 84 82 84 77 82 82 76 77 74 76 78 77 76 75 76 72 68 67 64 54 51 48 42 58 54 34 26 25 28 34
19 14 12 12 13 15 12 25 44 54 54 69 59 48 50 59 77 84 86 90 81 75 74 86 80 77 77 79 79 78 76 74 75 70 64 64 58 50 52 44 40 50 58 53 33 28 36 46 46
11 10 10 14 13 12 19 37 45 43 42 45 76 74 65 79 85 76 94 86 76 74 76 88 81 79 80 79 77 77 75 74 67 61 59 50 49 50 41 38 41 43 48 50 45 38 50 49 48
12 10 9 10 12 14 20 34 33 36 40 40 36 46 64 83 83 84 97 80 74 74 81 96 85 82 85 91 82 79 72 66 63 57 45 48 50 40 35 35 36 48 49 48 49 50 49 49 49
10 10 10 10 16 21 28 31 29 33 30 38 39 45 70 88 83 93 90 85 92 95 90 98 90 88 89 88 78 72 69 68 59 46 47 48 44 41 42 44 51 51 50 50 49 50 50 50 49
10 9 11 17 22 30 37 30 33 31 30 38 42 50 81 93 97 96 97 100 98 98 93 88 89 94 84 74 71 69 68 60 49 47 49 50 48 50 54 54 52 51 53 52 52 50 50 48 46
12 10 18 21 26 39 36 26 32 31 31 41 42 50 82 88 100 100 93 86 90 90 77 71 73 75 78 85 67 62 57 50 48 51 54 55 54 53 55 57 56 55 54 53 53 51 50 47 44
12 11 19 31 32 42 34 28 26 31 33 38 40 50 58 93 92 83 81 81 85 79 75 70 66 68 66 66 80 63 57 52 56 59 58 65 66 69 68 59 58 56 52 50 48 48 48 48 51
13 11 13 19 29 32 32 28 28 31 38 40 44 59 71 78 78 73 72 73 57 53 56 61 63 67 68 60 70 71 67 68 71 72 77 69 76 71 67 68 57 54 50 48 49 49 50 51 48
12 12 12 12 27 26 31 26 25 24 33 32 35 60 64 67 67 63 48 37 37 45 49 56 70 75 67 67 64 59 63 71 77 84 81 81 79 77 70 68 64 65 54 56 57 56 56 62 53
14 11 10 12 24 22 29 24 28 26 23 27 29 51 57 54 54 40 31 30 35 45 49 58 66 74 74 62 64 70 68 74 74 79 88 83 76 81 82 70 67 65 62 65 61 58 63 58 54
14 11 11 17 20 20 23 24 26 25 31 32 42 50 46 42 32 25 24 29 38 44 50 58 64 68 72 73 73 76 77 75 84 85 93 90 86 83 75 73 66 65 60 57 56 54 53 52 51
12 9 11 14 19 19 24 29 25 27 34 44 50 43 32 30 24 25 28 31 42 46 54 66 69 70 72 76 84 84 84 88 87 97 84 88 81 85 76 72 65 60 58 58 56 57 52 50 49
10 11 11 13 17 17 16 23 17 28 33 42 39 36 28 24 24 25 26 27 36 48 64 73 79 81 81 83 76 83 84 79 79 92 90 85 90 85 76 68 62 59 58 54 52 53 48 46 46
10 10 14 13 15 13 12 15 23 34 34 36 35 34 32 28 26 30 36 33 34 48 68 82 91 94 91 75 65 64 72 81 71 79 80 84 77 74 66 60 60 61 57 55 51 48 48 43 42
10 11 11 13 11 14 12 15 25 36 32 34 34 33 31 36 37 43 49 44 41 52 72 89 90 93 72 66 62 71 75 72 71 70 62 55 49 47 50 59 60 58 53 53 48 42 39 37 35
14 10 11 11 13 10 12 21 25 38 33 33 34 35 36 37 40 55 58 57 51 65 76 92 96 80 79 86 78 77 73 60 51 50 48 51 54 61 58 60 60 50 42 37 43 44 42 41 44
12 13 11 13 17 16 17 22 26 38 36 37 38 39 40 42 51 61 69 73 78 95 96 93 97 84 87 90 85 68 62 59 58 57 61 60 60 61 60 49 46 40 40 47 46 42 38 36 43
13 15 17 20 18 20 25 28 30 35 38 38 38 40 42 48 54 66 72 74 77 82 88 92 83 88 81 70 56 52 51 51 51 56 63 60 61 58 48 47 41 44 40 43 48 50 45 37 38
20 18 21 18 23 24 23 28 35 40 44 46 44 40 44 48 57 64 69 73 81 82 78 70 66 66 57 52 55 56 58 56 53 56 56 60 58 51 48 47 45 46 46 44 50 49 50 44 41
21 22 20 21 20 19 22 18 29 38 39 45 48 48 48 50 49 49 49 56 58 60 55 47 49 52 57 58 48 47 42 41 52 55 55 54 52 48 46 49 52 54 53 53 51 46 57 52 48
25 22 21 20 20 21 22 21 24 37 41 41 47 48 49 48 42 36 35 39 40 48 49 48 49 48 55 55 54 52 52 54 56 56 59 53 50 50 49 50 56 56 54 55 60 62 59 55 54
27 26 26 25 25 29 20 25 13 22 27 39 45 49 50 47 38 33 35 38 42 52 54 52 50 54 58 58 61 59 57 53 49 49 45 41 42 43 46 53 54 56 58 58 59 61 65 63 64
25 24 24 32 34 30 34 32 18 26 32 35 45 49 46 41 37 35 38 40 43 51 55 57 51 54 59 60 58 56 54 49 42 41 37 41 38 41 45 54 57 54 53 59 61 63 61 65 66
25 23 26 28 32 29 36 31 28 32 33 31 38 41 42 38 35 35 36 39 45 50 51 50 50 53 55 54 55 53 45 41 41 44 50 48 50 54 62 65 61 54 53 56 62 67 68 69 65
31 28 30 42 58 46 24 27 27 35 36 34 40 40 39 37 37 36 40 44 46 50 56 55 53 52 54 56 57 58 53 51 48 53 58 57 61 55 45 45 43 43 49 55 63 67 66 65 68
28 28 34 34 43 29 18 24 18 34 37 37 40 40 36 36 37 38 41 49 51 51 55 58 52 53 57 56 55 51 50 50 54 59 57 50 41 38 40 42 44 46 50 54 62 64 56 61 68
34 32 32 28 38 27 25 15 27 30 32 35 36 37 34 36 40 41 45 51 50 47 48 51 53 50 51 52 51 52 48 48 49 42 39 39 42 42 43 46 51 54 56 63 72 75 65 77 76
26 27 26 27 30 44 43 20 24 31 35 33 32 34 33 36 40 42 45 47 44 42 44 47 49 50 50 52 49 42 40 40 37 36 40 45 47 48 49 52 56 59 64 86 92 91 95 77 61

GFSSGP_925_rhum_045.txt.gz
RH
16 19 13 8 12 10 10 11 10 29 37 35 33 31 45 48 61 72 61 60 69 69 78 82 65 62 62 62 60 62 69 72 73 76 76 77 76 77 78 62 64 77 78 74 63 47 30 30 34
14 10 7 9 12 12 10 8 12 42 45 39 41 39 43 54 59 64 70 62 71 71 79 85 68 65 63 66 67 68 70 74 76 76 75 69 68 66 57 54 47 59 74 70 61 35 42 44 42
13 9 8 9 11 11 11 15 36 43 41 38 41 38 45 60 66 75 76 75 73 73 74 82 73 71 71 72 70 74 75 82 80 75 69 66 56 51 46 41 50 62 69 58 36 43 47 45 43
9 6 7 12 13 10 10 28 34 38 37 36 43 52 52 79 73 81 85 72 71 69 82 77 80 77 77 77 78 79 84 82 74 69 63 52 48 40 33 39 42 52 55 50 43 48 48 47 43
8 7 9 9 9 8 10 32 30 34 30 37 35 67 76 66 74 76 86 78 78 81 86 92 84 79 81 82 83 83 81 74 69 65 55 53 42 34 37 38 49 49 50 51 49 48 46 44 41
7 7 12 11 9 12 16 27 32 33 26 26 30 45 59 61 65 75 78 77 81 80 85 94 84 83 87 86 85 82 78 69 65 55 53 46 40 40 39 47 48 48 49 49 50 49 46 43 41
10 10 12 11 11 20 42 35 35 52 36 28 27 48 64 63 62 77 81 78 80 84 85 85 92 92 92 90 83 78 71 66 56 53 48 45 46 50 50 50 50 50 50 50 49 48 46 42 41
8 10 12 12 14 22 24 29 25 26 34 25 28 42 71 63 86 63 95 83 88 81 74 63 72 75 86 87 80 71 68 59 53 53 54 50 51 53 53 54 54 56 53 51 50 49 47 44 43
8 12 13 15 20 68 33 27 23 22 25 26 32 33 40 77 84 86 82 78 79 60 57 55 56 59 66 76 79 67 60 54 56 59 58 64 61 61 69 68 55 55 52 49 47 47 47 43 51
10 13 12 38 52 33 29 33 21 28 26 29 36 48 68 77 67 68 68 69 60 52 50 54 57 56 52 50 66 62 60 62 64 66 69 60 64 66 66 60 50 50 47 47 47 48 48 50 43
11 13 12 38 60 26 19 20 20 24 25 19 29 55 58 59 60 58 53 50 39 42 44 52 60 58 49 54 53 50 57 64 67 70 66 72 65 64 62 61 64 59 51 53 52 52 50 58 54
12 10 9 10 19 18 20 21 19 19 19 20 26 42 44 44 47 44 38 26 32 38 44 53 61 62 56 53 47 56 53 58 58 69 76 70 70 76 69 58 56 58 52 59 54 51 57 55 54
10 11 10 15 17 17 20 46 57 18 17 16 34 38 39 39 38 26 21 26 34 37 42 48 55 60 64 59 61 61 62 65 74 82 91 87 81 80 77 70 59 59 54 52 53 53 53 53 50
10 14 16 20 21 19 22 30 20 22 20 28 35 33 30 27 20 20 23 30 34 38 47 52 56 61 64 71 75 76 80 77 82 95 94 92 85 77 71 66 60 56 58 57 56 56 53 49 47
10 20 19 17 18 19 18 19 19 22 22 31 31 27 22 18 18 20 24 31 36 43 50 58 63 67 72 70 69 72 78 82 89 99 98 96 88 82 75 68 62 60 58 58 55 51 46 45 42
13 11 21 15 17 16 18 18 17 22 23 24 23 19 18 16 18 21 22 27 37 45 57 61 68 74 75 87 84 87 92 87 83 99 98 87 80 77 66 62 64 62 57 53 52 44 40 36 35
11 15 15 16 13 12 15 13 17 20 22 24 23 22 19 20 18 23 27 26 31 48 60 72 78 84 94 68 66 57 69 69 68 82 80 68 60 64 62 61 62 56 48 44 43 41 38 36 35
13 13 12 14 12 10 10 14 19 21 20 24 24 24 23 25 26 32 35 33 33 48 62 73 80 95 85 75 77 69 66 76 65 65 63 62 62 61 56 56 57 47 42 44 46 46 40 36 33
11 9 10 8 8 9 9 13 18 20 20 22 25 26 26 29 31 42 43 43 39 52 67 79 92 94 87 84 77 77 69 59 55 54 57 56 57 59 59 47 46 46 39 42 44 45 42 39 35
10 13 11 11 10 14 11 14 16 21 22 20 23 27 30 32 38 43 49 53 56 70 80 85 81 83 78 67 60 54 48 46 46 52 58 57 60 55 45 52 45 44 42 40 43 48 46 43 38
12 13 23 14 14 12 14 16 22 21 21 23 23 23 26 32 39 47 52 58 66 74 80 75 69 61 53 45 44 45 46 49 48 52 52 56 55 49 48 47 47 45 42 42 47 46 45 43 42
17 16 14 15 18 18 15 18 19 23 27 31 32 30 31 34 40 45 50 67 73 71 64 54 48 44 43 43 41 42 39 42 45 45 46 52 52 48 46 44 46 49 48 47 45 43 49 48 45
23 17 16 14 14 16 18 15 23 21 25 30 32 34 34 38 41 42 45 48 48 50 44 39 40 40 45 46 42 46 43 45 45 47 53 52 49 45 43 44 47 48 47 47 49 49 50 52 54
19 19 18 16 16 25 16 17 14 20 19 23 29 33 37 38 37 32 35 37 40 44 42 42 41 43 47 50 51 48 50 46 44 46 45 40 36 34 36 40 43 46 46 45 45 46 46 52 55
18 20 33 31 25 28 21 21 14 14 21 18 30 35 38 37 33 29 29 30 37 43 46 46 43 45 50 53 54 52 50 47 42 41 37 34 34 34 38 47 48 47 45 45 44 44 47 56 62
19 18 24 27 25 21 22 17 22 21 24 23 28 33 38 38 32 29 29 30 36 44 47 46 44 46 52 53 50 49 45 38 39 37 41 42 42 43 46 50 47 41 40 40 42 44 47 57 71
21 21 21 27 47 36 16 15 25 24 25 26 30 34 39 36 32 29 30 32 36 42 45 47 44 46 49 49 49 47 46 42 42 43 46 46 49 44 36 37 38 39 40 42 45 45 47 59 63
21 20 26 24 36 27 13 13 17 23 24 26 30 35 37 33 30 29 30 34 38 42 46 50 47 47 47 49 46 44 44 43 44 48 48 45 39 36 35 37 39 41 43 45 45 45 49 63 58
25 24 21 21 25 31 22 16 14 17 20 25 27 32 33 32 30 30 31 36 41 44 48 53 47 47 44 44 48 47 44 43 45 41 35 34 38 38 39 40 41 42 44 44 50 62 63 70 63
20 20 21 30 25 28 38 21 15 18 18 21 23 28 29 29 29 30 32 38 44 45 45 47 45 41 43 46 48 47 44 39 36 33 33 38 41 43 43 44 46 48 46 48 68 73 69 68 68

GFSSGP_925_rhum_048.txt.gz
RH
16 16 22 13 13 14 13 11 8 33 29 36 35 39 57 62 69 88 64 66 68 77 69 62 84 89 84 75 65 64 70 72 75 79 81 88 90 87 70 65 65 68 68 61 50 34 36 38 37
20 15 11 8 14 14 12 22 35 58 62 46 40 43 50 79 61 65 69 66 67 78 78 67 72 77 69 67 68 72 74 75 78 79 89 90 80 64 57 50 48 50 62 54 35 38 37 36 35
10 11 9 9 11 16 12 34 30 40 37 39 44 39 48 69 64 74 75 69 66 74 82 66 67 67 70 70 74 76 76 78 75 83 79 67 57 50 43 42 40 46 55 51 45 42 40 36 33
12 8 7 10 14 10 15 34 32 38 34 34 38 52 50 64 70 79 76 79 70 76 81 71 70 68 76 75 76 78 80 75 71 68 56 53 52 42 39 38 49 54 49 48 45 42 41 38 34
9 8 10 11 10 9 8 24 27 30 33 37 38 58 51 72 75 86 92 75 84 79 77 78 78 78 80 81 80 82 77 70 63 51 51 47 36 34 36 47 46 45 44 43 42 42 41 39 36
10 8 12 15 11 7 43 51 51 49 37 31 38 38 51 70 81 88 88 96 94 80 81 79 82 86 84 83 84 81 73 67 55 48 47 36 34 35 44 44 42 42 42 43 43 42 39 37 35
10 11 13 12 12 11 39 45 66 78 42 54 50 42 53 64 68 82 81 85 83 86 85 91 92 89 90 90 84 76 66 55 44 45 40 39 43 44 44 42 44 44 43 43 43 43 42 41 40
8 10 13 12 12 65 51 48 56 54 49 54 71 50 61 65 79 74 78 75 74 87 77 89 89 88 87 83 78 69 57 46 47 46 44 46 48 48 52 49 46 46 45 45 45 44 43 40 49
7 12 14 15 43 60 47 60 78 25 27 37 27 67 45 82 90 66 76 78 88 90 79 77 78 80 67 72 70 63 49 47 48 51 53 58 60 62 66 53 43 43 43 42 43 43 42 46 51
10 14 14 26 42 60 62 61 72 24 26 25 46 53 68 80 74 88 90 93 81 63 60 63 66 63 68 73 65 52 46 58 63 52 67 70 69 68 69 50 44 47 48 46 52 53 54 58 54
9 14 12 30 42 53 59 51 42 26 35 30 52 63 67 68 70 74 82 79 72 52 55 57 56 56 56 53 65 58 63 68 69 68 71 64 64 60 66 69 67 67 54 60 56 56 58 54 56
11 11 10 25 39 50 60 60 62 40 36 45 45 52 53 58 59 59 57 44 42 49 54 60 58 55 54 52 49 52 60 65 63 68 73 73 72 68 65 68 59 57 56 54 56 54 55 55 54
11 11 12 10 26 19 33 42 47 48 19 44 44 38 41 45 62 70 30 34 39 46 56 62 60 56 50 55 55 66 68 70 74 77 73 77 80 80 62 69 63 58 56 57 57 56 56 53 49
10 13 16 18 17 17 38 39 45 25 31 36 33 32 33 40 42 25 26 34 37 42 49 55 60 61 67 62 66 79 80 83 82 88 87 88 82 78 79 74 62 58 59 59 57 51 50 47 45
14 20 18 19 20 21 39 63 45 21 28 32 29 28 29 23 19 22 28 33 37 45 50 56 61 72 74 70 72 71 66 60 62 70 85 90 90 88 77 71 60 59 56 54 53 47 41 39 38
14 17 25 16 19 20 25 52 24 20 25 28 26 25 22 19 18 23 29 34 40 48 54 59 70 72 72 68 52 51 49 41 63 74 74 79 76 66 63 63 53 53 54 49 45 43 42 40 37
18 21 20 18 14 16 23 24 19 19 21 24 23 22 19 20 20 22 26 34 42 52 57 66 75 76 74 63 70 69 68 63 66 65 65 63 61 58 54 59 59 50 46 44 45 48 45 42 40
20 16 15 15 13 14 17 14 15 18 20 23 21 18 18 19 20 22 24 27 45 55 65 70 83 81 77 74 76 74 67 66 60 53 51 52 54 59 57 57 53 46 42 43 44 47 47 46 44
14 14 16 12 11 11 11 15 13 16 19 25 23 22 22 22 26 32 31 31 40 62 71 76 91 84 81 94 81 74 68 65 56 57 58 59 60 61 51 49 47 46 45 43 43 48 50 49 45
12 16 16 9 8 9 10 11 14 14 18 21 24 26 26 29 32 39 39 40 41 62 78 87 89 93 87 78 67 70 62 55 54 55 58 57 59 55 51 52 48 47 45 42 46 48 50 49 48
12 23 28 22 16 9 12 12 16 16 15 16 20 24 25 29 36 40 44 48 57 73 84 82 80 81 78 60 59 55 50 50 50 56 60 59 57 51 49 49 47 48 48 48 48 48 51 54 52
28 26 19 24 35 18 22 32 28 18 20 19 20 23 27 29 34 40 46 62 70 75 75 78 77 73 59 46 46 46 47 49 47 50 53 57 53 50 47 44 45 48 50 48 49 49 48 54 56
30 28 25 14 16 20 29 35 33 27 23 22 26 25 26 29 33 41 60 66 71 74 74 72 67 50 44 42 42 44 45 43 47 46 53 56 53 50 46 42 43 47 48 48 49 49 47 49 52
22 24 17 17 24 35 39 35 33 31 32 25 25 28 29 32 38 41 54 63 67 70 63 47 42 40 45 45 44 45 46 45 45 47 50 48 46 39 35 40 45 49 48 50 48 46 47 48 51
16 19 37 79 73 41 14 21 18 32 22 28 26 31 34 38 41 41 43 44 47 46 43 42 40 44 47 49 51 51 52 49 45 43 42 37 36 37 40 46 50 50 48 42 42 43 46 48 54
35 23 66 58 62 39 29 21 25 21 18 20 25 29 36 39 39 36 37 37 42 45 45 43 42 44 48 52 54 52 51 46 42 38 39 42 42 45 47 48 41 40 40 41 42 44 47 48 52
30 24 20 24 49 58 21 11 24 21 22 23 27 31 39 39 36 32 32 34 39 44 47 46 44 46 51 52 51 50 44 42 40 41 44 45 47 47 37 36 37 39 40 42 45 47 48 54 58
18 16 28 25 39 38 18 16 34 24 23 23 28 34 40 38 36 32 31 33 37 43 46 48 45 48 50 50 50 48 46 44 45 45 48 48 42 38 38 38 39 41 42 43 45 46 59 64 63
24 25 18 16 28 47 50 25 16 17 19 22 23 32 37 38 36 33 31 33 35 41 44 50 48 48 48 50 47 45 45 44 52 48 40 36 36 40 41 42 44 44 46 47 48 61 67 60 63
18 20 19 54 34 38 53 38 15 17 19 20 21 27 32 35 33 31 30 34 37 43 49 51 51 47 47 45 49 46 52 52 43 38 34 35 40 42 44 46 47 50 52 53 67 71 76 68 75

GFSSGP_925_rhum_054.txt.gz
RH
13 15 20 23 25 32 30 25 18 32 59 57 61 71 86 84 83 84 90 82 88 100 95 84 74 68 78 72 71 76 79 79 76 67 53 44 42 38 42 50 64 76 76 60 28 24 25 30 40
14 24 28 27 25 26 24 24 64 61 61 60 56 67 80 94 82 97 91 94 99 99 100 92 82 81 77 78 89 87 94 80 72 61 48 42 39 39 41 49 59 58 43 26 24 26 31 36 43
21 22 23 26 24 22 22 40 58 56 54 50 57 67 78 88 78 87 76 88 100 99 99 90 78 80 80 84 89 92 89 75 62 53 45 36 36 34 41 42 38 31 28 28 29 28 28 34 42
18 17 20 18 20 15 21 66 56 54 48 51 61 84 78 95 97 95 86 88 99 100 97 92 82 74 80 88 88 89 72 61 52 50 39 26 30 37 42 35 32 30 31 32 30 28 28 33 38
16 22 22 19 16 25 61 64 63 54 53 54 53 71 89 98 100 100 97 90 98 100 92 85 75 81 89 85 81 69 57 48 49 43 29 26 32 38 35 34 32 32 33 32 32 33 35 32 34
25 20 22 21 20 56 61 67 66 65 65 53 60 68 89 100 98 100 97 91 89 93 90 80 76 78 77 80 71 60 52 48 46 33 26 28 34 32 32 30 31 32 34 34 35 35 45 43 41
25 25 24 20 19 47 61 60 67 65 65 54 50 82 93 98 100 100 100 96 92 96 96 90 84 75 82 71 64 54 46 44 34 26 27 33 31 29 29 29 30 32 34 35 36 37 44 49 44
20 20 19 18 47 62 59 67 69 55 48 56 53 90 96 95 100 100 98 100 99 92 83 77 68 83 81 73 58 46 40 37 30 31 34 33 28 30 30 29 31 34 35 41 44 46 55 53 52
14 22 24 20 62 57 60 61 56 57 54 52 66 78 85 100 100 100 99 99 95 88 71 72 93 75 77 67 54 43 39 34 36 37 36 37 41 34 34 36 36 38 45 52 54 58 58 55 53
16 22 18 21 55 65 63 65 65 61 53 85 93 96 98 99 96 94 94 97 100 95 88 82 84 74 80 69 48 41 39 38 40 50 56 62 59 55 46 46 48 48 50 56 58 62 59 57 55
14 18 25 53 57 57 62 64 61 58 48 63 96 96 92 94 91 88 86 91 82 82 70 85 85 80 64 55 46 43 45 51 58 63 66 68 70 70 64 61 61 61 62 66 67 60 56 54 52
14 14 24 56 55 54 62 57 54 57 48 65 80 86 86 90 85 76 74 75 84 90 80 83 79 67 56 47 44 48 49 62 70 73 75 77 72 72 75 74 74 73 66 61 58 56 52 48 45
17 15 31 49 55 52 54 53 50 51 50 72 66 82 82 77 73 75 77 82 68 82 81 73 67 57 52 48 63 67 65 71 79 82 84 82 79 75 74 70 63 60 58 57 54 50 46 43 40
20 45 50 51 50 55 55 52 45 43 50 66 78 84 80 79 74 82 86 79 85 80 77 72 67 65 62 61 66 70 74 81 83 78 74 75 71 69 71 64 61 58 55 51 48 43 40 35 32
20 30 41 42 42 39 44 45 46 46 48 65 74 78 81 82 77 85 83 76 80 68 60 65 72 63 66 62 67 75 80 77 72 75 74 76 76 75 68 61 57 53 51 47 43 42 39 31 32
18 23 34 46 43 36 35 38 36 37 58 69 74 78 82 78 71 85 80 72 67 61 58 59 64 73 70 73 74 73 73 75 73 71 73 77 79 76 72 64 54 50 46 45 44 42 40 43 43
24 27 24 33 30 35 33 36 36 38 42 62 69 68 69 78 76 76 66 60 60 58 60 68 70 72 72 74 72 73 74 66 62 70 78 75 69 66 54 46 47 47 45 43 42 44 48 46 48
29 25 24 26 39 37 42 36 31 35 48 54 61 62 49 56 59 54 49 56 53 53 62 70 74 72 71 70 70 65 60 59 62 70 68 64 54 48 50 48 45 44 42 43 46 47 46 52 53
26 27 27 23 25 39 37 33 31 40 44 42 40 52 48 52 44 43 51 56 62 67 64 76 75 72 69 66 62 65 64 65 62 60 55 53 54 58 52 48 47 46 45 44 47 48 51 51 51
35 33 28 26 21 33 33 34 33 37 37 33 31 35 35 38 44 48 54 59 64 74 71 76 75 72 65 54 53 63 68 67 57 53 54 59 59 53 50 48 47 47 46 46 47 48 50 50 53
36 40 33 31 25 21 24 28 23 24 34 35 34 28 29 34 42 56 61 66 78 90 85 79 76 72 64 52 61 76 77 66 60 61 61 62 56 51 48 48 48 47 46 48 49 51 51 52 50
40 33 33 32 25 25 25 41 35 25 32 38 34 37 35 37 40 59 64 82 85 88 86 82 76 72 69 65 76 76 68 68 61 59 60 60 58 50 49 48 47 46 50 50 51 51 48 46 48
38 33 31 32 35 33 33 35 34 30 30 33 38 38 36 45 40 61 72 79 89 90 86 84 78 75 79 75 83 77 63 56 56 59 60 60 54 50 49 47 47 51 50 50 49 46 43 42 44
27 29 43 48 48 50 36 37 37 35 28 23 31 35 39 52 48 58 79 87 94 90 87 82 82 82 84 78 88 71 55 55 57 60 62 60 54 52 52 51 52 50 50 48 44 41 41 42 43
30 40 55 59 71 59 39 44 34 31 29 27 29 44 48 58 65 81 91 92 98 97 93 88 85 85 79 78 83 66 53 53 52 57 61 60 60 56 50 48 48 46 41 40 41 42 43 44 46
41 37 59 46 76 61 38 46 40 33 31 27 27 39 59 64 66 78 83 85 93 93 91 86 83 78 79 74 68 60 55 56 54 58 61 56 50 51 46 42 46 42 39 40 42 43 45 46 53
38 46 39 53 63 81 48 29 33 32 38 43 47 51 66 78 83 84 83 86 86 84 82 79 72 76 61 53 54 50 49 50 50 48 50 53 58 51 51 48 48 43 41 42 44 48 49 56 66
29 33 47 60 40 43 40 37 51 36 35 42 49 53 67 66 72 78 78 79 74 69 69 68 71 66 52 52 53 53 49 43 49 56 64 65 68 59 58 56 42 42 44 45 47 52 59 67 68
32 32 32 41 56 56 68 44 30 40 38 47 51 58 63 61 61 66 69 69 67 64 53 48 49 48 51 56 53 48 48 50 55 63 70 62 62 56 48 44 45 46 48 48 53 55 61 56 60
41 38 40 63 37 58 74 46 28 34 38 37 41 54 58 54 52 56 59 62 59 53 49 48 48 50 56 58 49 52 56 63 67 68 65 69 53 49 44 46 46 48 49 53 55 57 58 60 71

GFSSGP_925_rhum_060.txt.gz
RH
17 17 22 21 29 34 32 27 24 37 40 79 72 72 76 96 86 77 95 90 90 100 90 80 70 68 64 71 84 88 82 65 51 45 37 45 36 43 60 66 70 71 73 74 76 68 49 46 54
17 26 24 26 28 30 25 22 38 70 70 75 69 78 81 89 86 94 88 99 100 100 86 83 82 72 73 83 86 73 67 42 36 32 32 44 40 51 57 59 69 68 71 75 78 65 60 58 69
22 24 28 29 30 23 21 18 50 61 74 69 76 86 90 95 89 91 91 97 98 100 90 89 89 88 87 86 88 68 53 40 30 30 39 42 35 42 50 61 67 67 66 59 48 48 55 62 58
20 17 22 26 22 18 17 30 69 66 62 65 72 91 86 95 99 90 91 91 91 97 87 91 84 71 80 80 73 60 55 35 30 35 40 48 54 39 43 50 59 63 58 41 43 42 44 47 38
18 25 28 23 18 15 58 64 67 61 67 67 67 92 86 99 100 97 88 87 90 97 89 87 76 72 88 85 75 50 50 38 32 46 60 60 40 34 35 34 39 54 50 42 45 44 43 47 48
28 23 26 24 20 20 65 62 68 70 67 67 80 89 96 100 98 99 91 85 93 99 95 91 80 82 87 83 68 54 53 32 50 46 59 46 36 33 34 35 34 41 50 49 46 46 47 48 48
28 28 26 22 21 25 56 62 64 67 63 66 69 95 95 98 99 100 99 97 99 97 99 100 91 88 91 67 61 47 34 45 34 47 48 42 36 36 36 38 38 38 42 53 54 51 51 51 52
28 26 21 22 21 31 60 67 71 58 60 56 80 93 96 97 100 96 100 100 100 99 94 98 100 91 75 70 58 59 37 29 30 43 44 38 37 38 42 44 44 44 52 55 56 57 54 54 54
19 26 28 22 24 30 64 58 58 56 70 89 89 84 94 100 100 100 100 100 100 100 100 98 92 82 69 63 64 57 39 31 41 46 42 39 40 42 47 48 51 54 57 56 56 56 56 54 52
21 27 22 18 27 53 66 57 56 58 82 87 95 96 100 100 100 98 99 99 100 99 99 89 74 62 56 68 57 48 40 39 44 44 43 43 44 46 49 52 56 56 60 60 58 56 54 53 50
19 24 19 23 49 57 66 61 60 59 62 85 91 85 97 96 96 95 98 100 99 90 90 86 77 51 74 88 73 60 43 40 50 44 44 47 49 49 52 52 56 60 62 60 56 55 53 50 47
19 18 17 46 60 64 65 59 59 58 52 76 82 86 93 94 93 93 97 98 99 98 72 70 61 76 88 80 58 53 47 48 48 48 57 58 58 57 57 59 60 64 62 58 55 52 46 42 36
18 35 49 56 62 57 52 51 52 89 89 80 86 87 90 92 90 94 93 93 98 85 97 76 82 81 83 72 59 52 46 51 55 65 69 73 72 70 70 72 68 65 58 55 50 43 36 30 27
50 53 56 55 54 56 50 52 46 82 88 84 83 90 92 90 89 91 95 93 98 97 94 73 75 86 83 67 57 54 51 56 62 69 74 77 71 74 74 72 64 57 54 49 42 36 29 26 26
39 46 43 47 56 50 47 44 51 85 90 93 87 82 87 83 79 86 79 89 93 93 89 76 84 85 82 58 55 57 60 70 76 80 80 79 75 76 73 66 59 54 49 45 40 33 30 27 30
35 34 47 40 44 49 38 46 49 83 91 91 93 85 87 78 77 78 79 80 79 73 72 81 86 89 78 65 54 57 67 78 86 83 82 83 83 76 68 62 57 51 46 43 38 34 31 32 33
31 36 39 30 44 44 42 37 55 83 84 95 92 93 83 78 78 78 74 76 73 76 78 83 85 85 69 59 61 71 79 89 90 86 88 82 77 70 65 60 55 49 44 41 38 36 34 38 43
34 30 27 30 33 45 47 44 46 71 87 94 95 93 86 81 74 79 81 74 73 74 76 77 82 74 71 62 73 81 95 96 89 85 84 81 76 68 63 60 53 46 42 42 40 36 42 46 45
34 34 36 30 28 30 34 43 42 58 80 96 96 96 94 87 69 75 75 78 71 73 75 76 83 75 71 80 89 98 96 93 86 81 79 82 76 70 64 52 46 44 44 43 41 42 48 52 50
34 37 38 35 29 33 39 40 36 51 62 77 89 93 92 90 89 80 77 82 75 74 73 74 79 76 73 75 83 89 89 82 74 78 77 73 66 55 47 45 44 45 45 44 43 46 52 55 52
34 36 38 39 35 34 34 32 36 36 50 56 70 76 76 83 88 83 81 79 75 72 73 70 72 74 76 82 86 85 82 74 76 74 71 66 59 54 49 47 46 47 48 45 50 51 50 50 49
40 34 35 40 36 37 26 35 36 37 48 50 56 73 76 70 72 74 73 73 74 74 75 76 73 75 81 82 84 79 72 71 67 64 66 63 64 62 52 50 49 50 50 51 53 50 47 40 40
38 36 39 37 40 37 38 40 32 38 49 49 49 55 66 60 60 65 65 63 70 70 72 79 80 81 85 84 82 76 71 68 64 65 63 64 62 60 55 52 53 53 53 53 50 47 41 40 42
30 38 41 48 49 52 39 41 41 41 39 40 45 46 50 55 52 52 53 57 65 72 73 78 80 84 90 88 85 78 76 77 72 65 63 68 67 63 60 58 57 55 51 62 54 44 42 42 45
33 41 53 54 65 54 42 47 44 30 29 33 41 44 42 45 48 51 66 67 75 77 80 84 87 94 88 90 90 84 79 79 76 64 61 68 66 62 60 58 54 58 73 77 62 49 44 42 45
41 38 57 40 63 56 45 48 35 30 35 42 37 38 44 43 45 49 57 70 83 84 90 92 93 92 93 96 95 87 80 84 74 63 61 66 67 64 61 58 65 77 73 67 61 63 46 46 49
41 44 38 62 70 81 52 40 27 34 34 42 41 49 53 49 50 54 64 76 86 92 90 92 96 95 97 91 100 92 90 92 81 67 63 67 68 62 60 71 77 81 72 73 69 50 48 48 54
32 40 47 59 50 53 45 41 40 31 34 40 47 46 56 63 69 76 85 88 91 92 87 89 96 94 95 99 97 93 92 90 89 72 68 72 68 65 79 78 85 75 68 63 52 49 50 54 59
43 44 44 50 56 55 66 49 37 28 34 32 37 51 54 78 83 87 91 91 94 94 94 97 98 99 97 95 95 96 91 92 85 75 74 70 71 78 84 84 80 64 55 60 52 53 57 62 61
36 44 45 64 47 64 76 56 27 29 33 36 38 44 56 73 85 90 92 93 96 96 97 94 98 95 94 93 89 86 87 83 76 75 72 77 83 90 83 80 56 50 59 55 55 52 59 62 62

GFSSGP_925_rhum_066.txt.gz
RH
36 24 18 15 14 11 11 11 10 11 30 26 29 33 39 53 44 49 72 76 79 79 74 88 94 100 99 86 85 78 86 84 75 62 45 34 19 25 37 52 57 65 82 85 93 95 87 41 35
23 22 19 13 13 12 10 10 14 20 28 48 49 50 40 46 59 68 82 73 80 77 70 75 95 97 92 84 78 79 74 67 54 40 32 24 27 36 51 60 68 75 85 84 90 93 51 35 39
21 20 14 13 12 12 12 12 16 26 40 45 47 54 53 61 67 68 68 78 88 77 66 75 75 79 81 83 75 74 64 49 41 36 32 42 39 47 54 65 78 86 79 83 93 68 37 39 43
15 11 12 12 13 10 12 13 22 36 40 41 46 47 68 76 73 68 72 86 96 77 68 84 73 70 76 75 74 59 44 42 53 54 52 49 49 54 59 72 77 84 85 91 79 51 38 43 46
13 10 12 12 11 11 12 24 37 44 40 41 42 53 64 84 86 85 83 84 94 89 84 90 74 76 83 83 69 46 46 52 56 59 66 63 68 61 60 63 65 75 81 72 59 40 44 48 47
12 12 13 12 12 14 13 32 36 46 42 43 45 51 64 85 90 94 87 86 94 92 92 90 77 80 89 90 78 66 58 53 59 72 74 68 60 55 53 52 52 50 59 54 41 44 48 48 47
12 14 13 12 15 16 21 43 45 43 41 41 42 50 60 91 98 100 98 92 92 90 91 88 88 97 97 92 89 74 66 54 72 69 58 58 55 48 47 50 47 48 47 44 47 49 49 50 50
11 12 13 12 14 16 27 38 41 40 43 49 45 46 60 92 99 99 100 99 100 100 98 95 100 100 92 77 69 69 50 72 67 52 52 52 47 46 44 44 45 46 48 49 50 50 52 53 52
12 14 14 13 14 14 30 34 42 39 43 48 52 50 57 99 99 99 99 100 100 100 100 100 94 97 86 70 58 72 70 68 62 48 49 51 61 59 58 64 51 50 51 52 52 53 54 53 54
14 14 12 11 11 13 25 30 35 42 46 44 56 65 84 100 99 99 99 100 100 100 100 100 99 91 86 80 79 77 81 77 66 66 63 57 63 58 68 63 61 58 56 55 55 54 51 47 46
14 15 14 13 12 12 22 32 33 32 33 34 49 71 84 94 95 97 100 100 100 100 100 100 98 95 78 67 58 60 78 79 68 65 55 67 73 74 71 76 67 64 58 52 49 51 50 52 48
19 15 15 14 25 24 25 34 32 34 36 43 47 61 70 82 89 93 97 100 99 100 100 100 96 88 73 65 61 63 86 77 75 62 67 72 69 76 72 69 67 63 57 57 56 57 58 53 49
20 21 29 28 32 33 36 33 32 39 50 48 55 65 78 83 91 96 99 100 100 100 92 93 92 80 71 65 62 68 70 69 63 66 66 63 68 69 70 70 63 60 60 58 56 55 48 47 42
28 30 29 29 31 31 32 32 30 47 54 55 61 66 76 77 87 98 100 100 100 100 100 99 85 70 66 88 78 68 61 68 66 67 69 74 67 76 71 73 65 62 57 55 52 47 43 39 38
28 30 31 31 30 26 29 28 28 36 55 57 58 74 59 62 90 91 98 92 85 81 87 80 88 86 76 83 71 61 58 58 54 56 75 82 83 86 78 74 68 61 58 58 53 47 43 36 34
23 22 20 24 29 30 34 27 25 41 51 60 53 56 57 52 67 65 74 70 69 58 61 65 69 83 86 79 69 58 61 64 64 74 90 95 97 94 78 80 67 61 58 52 49 44 39 36 33
19 19 21 21 23 24 28 25 29 44 48 56 54 51 54 55 53 58 61 58 59 58 57 62 75 84 94 94 80 77 75 69 72 91 94 98 99 100 89 75 68 65 57 54 48 43 39 39 35
20 20 20 21 22 26 24 23 21 41 46 46 52 50 53 55 61 59 60 56 58 62 61 65 71 79 84 91 83 69 66 66 80 94 100 98 100 99 85 70 68 60 57 55 47 46 44 42 43
17 20 21 19 19 22 21 22 19 35 46 45 50 51 54 57 43 55 60 58 51 56 60 64 70 75 86 85 72 64 68 73 86 99 100 99 95 96 80 68 68 61 56 51 56 52 51 50 51
22 23 22 20 20 23 21 20 21 34 45 36 40 46 51 47 48 47 51 56 60 61 66 66 68 75 80 70 66 63 64 66 77 99 98 99 94 86 76 68 66 61 56 59 57 52 50 51 53
23 25 24 23 21 22 24 21 20 23 35 37 36 35 39 41 45 47 49 53 56 56 61 65 67 69 78 70 66 66 70 76 81 96 100 98 92 80 74 72 65 63 56 57 58 56 53 50 54
26 21 23 24 27 25 23 20 17 20 25 34 37 40 37 40 40 40 47 51 55 56 56 63 66 69 77 75 65 65 62 63 70 90 90 93 87 82 73 71 67 62 55 56 58 58 54 53 49
24 26 26 27 28 27 25 21 17 19 18 19 26 32 36 36 39 37 40 47 52 55 59 61 62 69 74 78 72 71 67 62 67 85 84 85 86 80 72 68 64 63 59 61 59 61 61 55 54
26 29 29 30 29 32 25 25 17 15 16 17 17 19 28 35 35 35 37 39 44 55 64 65 64 65 71 82 84 78 74 75 88 86 87 91 90 76 68 62 65 64 61 66 64 64 57 61 59
26 30 34 41 36 32 28 26 18 15 18 18 20 23 22 23 34 35 34 40 40 48 61 65 66 61 71 80 82 83 81 82 88 86 85 85 85 79 71 69 66 66 67 66 64 67 64 59 65
27 26 32 34 34 27 29 24 16 16 16 18 24 25 24 26 26 31 35 36 42 45 58 64 64 64 71 84 83 87 92 89 93 88 87 84 82 78 75 72 69 70 69 70 60 71 73 58 63
32 32 25 37 48 41 23 19 15 15 18 21 17 22 25 25 27 28 30 36 41 47 53 60 59 61 65 80 84 94 98 100 96 90 93 82 81 79 76 77 74 71 80 67 72 83 71 68 68
27 24 34 33 42 37 24 24 18 16 16 17 16 17 24 32 29 27 27 33 39 45 51 58 60 58 58 72 88 89 96 95 98 100 98 86 90 82 79 78 78 82 74 85 87 73 65 60 66
33 31 29 28 31 35 34 25 16 15 15 17 16 19 20 25 30 31 30 31 36 43 50 56 62 55 58 64 80 90 94 100 100 100 100 96 92 86 81 88 89 83 96 92 84 69 67 68 57
23 24 27 33 33 36 41 30 15 15 19 18 18 22 21 26 30 34 34 38 41 46 49 52 58 58 59 66 76 93 97 100 100 99 99 99 93 88 94 85 90 99 95 80 83 84 67 59 55

GFSSGP_925_rhum_072.txt.gz
RH
18 16 28 17 16 14 15 11 7 9 10 29 17 24 26 19 43 59 72 62 64 97 95 93 92 86 80 73 69 70 73 67 55 57 59 53 50 59 72 77 80 87 90 87 83 80 46 39 42
27 27 17 12 18 19 13 11 11 8 26 23 18 16 19 33 63 69 68 55 76 90 92 94 95 92 92 91 89 94 86 69 60 60 53 48 57 75 83 82 84 85 88 81 82 75 40 39 39
21 20 14 16 18 17 14 12 12 11 28 31 28 22 36 52 69 61 40 38 83 79 83 94 90 93 91 92 91 92 85 67 62 51 45 50 67 81 86 85 84 84 87 83 80 45 41 40 43
16 12 11 15 11 8 10 12 26 22 35 40 50 65 46 53 51 58 64 65 74 76 74 83 88 88 89 90 90 94 81 67 54 50 54 60 65 72 77 81 85 88 85 84 55 44 42 42 42
14 11 14 13 11 11 8 13 43 46 55 59 54 79 73 64 56 66 66 72 70 74 75 74 86 93 92 94 92 95 77 61 56 55 57 64 74 73 77 80 89 88 60 47 46 44 43 43 43
13 11 14 13 13 11 11 15 17 18 23 57 77 74 69 44 72 78 69 77 82 86 92 87 82 87 91 97 96 88 67 61 63 63 66 74 83 85 82 81 85 76 41 43 46 44 44 45 46
13 13 13 11 9 12 24 28 25 20 35 73 57 61 84 71 82 84 90 85 84 92 70 80 87 100 100 99 94 81 66 67 67 70 66 71 82 84 80 78 80 53 40 45 46 46 46 47 47
10 10 11 11 16 11 24 26 25 32 38 34 30 58 87 85 93 93 97 99 92 86 99 66 95 93 100 97 91 91 87 83 74 64 70 74 76 74 78 75 59 44 42 47 47 46 48 49 48
7 12 14 17 14 13 11 13 43 35 32 25 30 66 86 98 94 99 100 99 100 100 100 98 100 95 88 86 80 83 87 82 78 71 68 67 61 64 74 61 50 43 45 47 47 49 50 50 41
10 12 14 13 9 10 10 10 39 43 51 68 69 60 81 93 99 92 98 99 100 100 100 100 99 100 93 80 81 80 89 79 75 64 60 57 66 64 55 52 46 44 49 49 50 50 46 45 45
11 13 10 9 10 10 12 12 20 25 49 60 53 60 64 86 94 98 99 100 100 100 100 100 98 98 90 82 73 57 54 66 64 59 60 57 67 59 50 51 52 51 50 51 52 48 54 53 47
12 9 10 11 11 12 12 13 20 18 35 37 42 54 65 83 91 91 99 100 100 100 100 100 100 96 95 65 72 73 80 74 58 65 56 71 67 63 54 59 54 54 55 53 52 57 59 52 46
12 12 12 11 12 13 12 15 16 18 28 34 41 44 59 74 92 97 100 100 100 100 100 99 98 100 100 100 96 84 72 67 68 70 68 69 66 68 70 69 60 56 54 53 56 59 55 49 42
12 16 15 22 24 20 18 16 25 34 28 35 38 45 63 78 94 99 99 100 100 100 99 100 98 100 96 94 85 70 55 48 46 50 70 66 67 67 65 64 62 57 56 59 58 57 53 47 42
13 16 17 35 26 22 22 19 50 58 50 36 40 46 57 75 89 95 98 100 100 100 100 96 91 91 88 76 72 66 52 44 42 59 68 63 66 68 68 66 62 59 59 58 57 53 48 44 37
17 15 20 28 31 27 25 28 62 68 59 53 40 51 51 61 82 96 98 99 100 100 100 98 97 85 68 64 61 63 71 60 59 59 50 65 66 64 70 66 62 60 59 58 56 53 48 42 34
15 20 18 24 27 22 18 20 44 59 58 47 41 50 41 58 71 80 92 99 100 98 97 95 88 71 67 70 69 66 55 46 62 57 61 62 68 76 74 70 65 61 62 62 57 53 47 40 35
23 19 20 17 18 18 18 18 26 37 58 30 43 44 44 45 55 66 76 85 92 87 96 91 88 83 73 71 62 66 60 61 57 55 63 68 79 87 80 78 69 67 64 60 56 52 46 39 38
15 16 16 22 17 17 16 20 23 20 21 29 32 32 35 38 45 49 53 74 79 91 87 84 77 74 76 77 76 66 62 55 55 59 65 72 80 84 92 81 75 68 64 59 58 54 45 42 44
14 17 16 16 15 16 15 21 16 18 25 28 33 33 38 38 41 44 47 56 64 68 71 75 73 80 88 82 73 62 59 59 56 59 70 79 88 84 90 84 73 72 66 61 59 54 49 48 49
17 19 19 21 16 17 20 21 16 16 21 23 29 35 41 39 44 48 48 50 59 62 60 58 67 76 76 72 62 51 48 48 48 64 76 74 81 85 89 83 73 71 67 63 60 57 52 52 53
22 16 17 17 20 27 25 35 20 16 19 23 27 39 35 36 43 46 47 50 51 53 54 55 51 60 63 58 52 50 49 49 50 64 79 80 77 84 81 82 76 69 67 65 61 60 53 53 56
20 16 20 20 22 23 29 34 19 16 19 21 22 31 35 38 40 44 43 49 51 51 56 52 48 47 48 50 53 48 49 49 46 50 78 79 76 82 84 84 75 70 71 70 64 62 56 58 57
15 18 20 21 24 36 23 23 24 25 16 15 18 22 28 40 39 33 37 42 46 49 49 54 53 50 48 55 48 56 53 52 51 59 70 83 76 80 87 82 77 77 80 72 66 63 60 61 54
19 24 38 47 43 42 30 24 19 26 16 12 14 20 24 27 33 34 35 36 37 45 50 52 55 52 50 59 53 52 59 53 55 55 67 83 90 86 85 88 82 83 79 77 70 74 69 62 57
21 24 43 79 56 38 31 24 12 12 11 11 12 13 18 21 27 28 29 35 36 39 47 51 52 53 50 52 61 64 57 64 58 58 67 79 86 88 87 88 88 86 80 76 78 88 79 66 62
23 28 20 34 39 50 29 20 12 11 11 11 12 13 17 21 22 24 27 27 32 36 45 52 52 51 50 52 56 62 67 68 67 67 71 80 83 86 84 83 91 83 81 84 93 87 81 78 70
18 18 30 29 47 47 24 22 34 18 14 13 12 15 18 19 21 22 22 28 27 32 39 49 52 50 51 50 58 63 68 72 72 75 81 85 85 88 90 90 87 81 84 90 98 94 87 81 93
20 23 28 24 28 44 48 31 21 17 12 14 13 14 14 19 22 22 22 21 28 30 33 46 51 51 49 50 54 63 71 71 79 84 92 89 86 94 91 93 89 90 99 100 91 83 82 90 91
17 22 25 38 32 34 55 38 15 17 14 14 14 14 15 15 18 23 23 22 22 28 33 41 48 49 49 46 55 66 72 74 82 90 96 93 97 98 96 94 98 99 94 84 83 92 94 90 93

GFSSGP_925_rhum_075.txt.gz
RH
16 17 21 29 34 30 30 22 15 14 28 30 22 22 33 48 48 52 65 47 91 50 58 80 85 89 83 64 64 60 56 52 54 54 54 52 60 73 78 80 88 85 83 78 68 45 46 54 59
18 29 30 33 28 35 28 16 16 35 34 38 35 43 51 57 62 66 77 63 55 62 39 54 85 88 91 76 74 67 59 55 56 54 50 55 67 78 81 83 82 80 81 76 66 38 42 52 54
16 30 33 28 34 34 29 17 28 34 42 42 45 49 65 73 66 63 59 57 43 47 37 55 88 86 88 88 75 66 55 56 55 42 44 51 76 81 82 77 74 78 79 76 42 36 45 50 50
20 22 24 23 26 20 16 28 30 29 49 63 51 70 56 61 53 64 70 64 56 62 71 64 89 84 86 85 80 66 59 58 45 40 53 68 81 83 84 78 74 72 65 42 38 37 39 47 47
24 26 26 26 22 16 15 27 35 46 63 64 49 64 59 56 59 70 64 82 86 86 88 71 97 88 88 94 83 71 65 54 40 46 63 76 78 82 86 78 58 50 43 39 39 40 37 35 42
24 22 28 26 20 14 24 24 21 48 56 61 58 68 68 60 46 77 70 76 82 91 91 97 99 91 92 98 88 73 62 46 47 63 73 76 75 84 87 75 45 40 43 41 41 42 40 32 41
22 25 26 20 15 20 22 25 26 32 58 59 59 73 76 61 63 78 94 98 95 83 76 75 90 96 99 93 92 80 63 58 66 82 75 72 76 82 84 73 41 42 44 42 42 44 44 36 42
19 20 18 16 23 21 24 26 30 32 37 50 61 90 88 68 81 96 100 100 96 95 92 98 92 80 99 100 99 88 78 77 71 77 84 85 85 83 84 73 40 44 45 44 44 47 47 36 40
15 18 19 21 20 15 20 17 39 38 36 58 77 79 78 89 100 96 98 99 100 96 86 95 87 90 78 96 97 91 90 76 77 90 96 92 91 87 81 58 42 42 47 45 47 49 45 33 34
17 21 19 14 16 15 14 15 37 41 47 56 69 70 85 97 95 99 99 99 100 100 100 99 93 83 86 81 89 79 86 80 80 82 89 90 89 78 62 50 42 46 46 47 51 50 45 44 40
18 19 15 12 15 15 15 14 29 41 50 56 53 73 87 94 97 99 100 100 100 100 99 100 100 100 92 91 83 81 80 71 66 63 66 65 66 66 52 45 47 47 49 51 49 50 54 50 43
17 14 12 12 24 25 24 16 19 64 62 57 62 81 88 89 93 97 99 100 99 100 100 100 98 94 86 79 72 65 65 62 64 59 65 67 54 52 46 47 50 50 51 52 51 57 56 49 44
18 16 14 21 21 21 22 20 21 64 60 56 63 75 89 94 94 100 100 100 100 100 100 100 100 100 95 86 73 57 46 63 68 64 67 62 46 48 51 48 49 52 53 52 58 58 56 47 36
16 16 18 25 22 23 24 27 28 40 52 74 84 80 92 91 92 100 100 100 100 100 100 100 98 94 98 66 50 42 66 72 69 73 69 68 60 51 49 50 51 56 53 56 60 58 52 45 40
19 23 21 29 27 26 26 31 38 49 48 69 70 82 89 88 89 98 100 100 100 100 100 100 100 99 88 87 85 82 71 70 66 64 70 69 68 58 61 60 58 58 57 59 59 56 51 45 39
23 22 27 20 31 28 32 43 40 56 52 77 80 78 86 81 90 99 100 100 100 99 97 94 99 98 98 89 76 67 60 55 47 50 54 63 65 67 70 65 62 62 60 60 59 54 52 44 37
28 32 26 20 29 30 34 38 42 58 56 65 69 69 88 95 89 96 98 100 99 96 100 99 92 90 91 81 78 67 55 45 42 33 40 63 66 67 69 69 66 61 60 60 57 54 50 46 35
34 30 23 24 31 35 34 34 48 62 59 68 71 68 85 91 93 92 96 100 100 100 100 97 91 83 76 66 58 54 47 41 38 41 49 55 57 67 68 71 67 63 61 60 59 56 52 45 38
26 24 22 19 18 23 26 25 37 59 66 77 73 66 80 82 82 90 93 100 100 94 100 95 85 71 66 65 67 66 70 61 54 58 62 59 58 67 70 77 71 66 62 63 60 57 52 47 39
22 20 22 19 22 24 18 22 25 34 61 55 64 57 66 73 82 83 91 96 99 100 94 91 82 68 72 72 77 79 69 65 58 63 59 60 66 66 74 77 76 72 68 65 60 57 55 46 45
20 22 24 25 20 21 25 29 24 26 33 38 41 44 53 62 73 77 84 90 92 96 88 84 73 68 65 67 64 65 70 66 62 61 65 66 67 68 78 75 82 82 71 66 61 58 54 45 48
25 21 21 25 27 34 27 48 29 24 32 33 40 47 47 55 55 66 74 79 83 84 80 73 73 72 63 69 85 80 69 63 61 55 57 65 70 73 75 77 84 84 73 69 66 62 57 51 55
24 23 22 25 32 32 34 46 41 24 30 34 46 50 48 49 53 54 61 67 62 66 70 73 73 76 86 87 81 77 66 59 56 57 62 68 74 76 83 74 80 84 75 68 70 63 60 54 62
19 22 26 26 32 51 34 41 38 27 22 26 39 44 48 45 52 51 51 59 56 62 64 65 64 68 79 78 75 67 58 52 49 54 66 70 72 75 81 76 80 82 76 72 73 86 65 68 67
21 28 54 67 61 64 34 40 36 29 26 21 28 44 40 41 47 51 52 53 56 59 59 58 60 62 70 70 68 63 53 49 48 48 74 85 84 84 78 78 85 84 80 80 83 82 72 73 80
26 33 67 70 75 60 43 42 27 25 21 17 17 32 39 41 41 48 49 52 53 54 57 58 59 59 52 57 60 53 56 50 50 51 66 72 74 81 82 82 84 84 88 82 87 81 86 93 94
30 36 30 56 50 66 53 32 22 18 15 16 15 17 36 44 45 40 45 47 51 53 54 55 60 57 56 55 59 57 59 61 55 51 62 66 76 75 86 87 86 92 88 88 86 87 97 93 94
23 25 38 41 70 72 44 36 41 25 20 17 15 24 23 24 33 40 38 41 42 46 51 56 55 60 58 54 60 66 61 64 66 61 57 71 72 80 90 90 88 90 92 89 88 91 97 96 94
28 28 28 36 51 59 57 51 30 27 23 16 19 23 24 26 26 26 35 35 40 39 44 53 57 55 58 57 55 63 69 66 66 67 78 88 93 92 90 90 93 93 92 87 87 96 97 92 86
20 29 33 62 48 51 62 54 20 19 15 19 18 18 23 31 30 27 26 34 42 43 46 51 59 58 54 57 57 55 60 65 70 86 94 92 94 93 88 93 92 91 91 92 96 96 88 88 88

GFSSGP_925_rhum_081.txt.gz
RH
20 22 29 27 27 38 38 28 23 26 36 34 38 46 39 66 56 53 59 56 84 98 93 78 70 59 66 67 71 94 77 47 43 51 78 84 86 84 72 64 79 85 86 87 89 91 93 96 94
25 32 32 35 34 38 34 26 33 43 41 48 46 50 61 76 66 64 55 60 88 98 85 86 63 50 45 55 60 76 88 94 92 89 85 86 82 71 70 73 82 86 87 89 90 91 92 85 80
21 38 34 41 44 38 35 25 26 41 51 49 44 58 58 78 63 69 65 60 86 85 94 99 73 55 48 45 61 66 64 66 80 86 86 87 86 78 68 70 83 89 89 89 85 77 62 73 65
23 26 30 32 30 28 27 21 20 38 45 54 51 54 59 58 54 56 68 72 80 70 79 78 84 53 42 39 53 75 77 59 52 70 84 89 81 71 61 71 82 87 88 83 76 52 54 62 60
26 32 34 32 30 24 22 19 19 38 47 57 57 51 55 63 61 94 84 85 60 77 82 90 86 82 44 51 68 72 58 68 72 57 84 90 71 62 63 67 72 80 78 66 52 54 59 62 56
34 31 36 34 30 23 20 21 39 46 52 56 53 59 68 72 80 94 94 93 81 72 77 88 86 79 71 78 82 81 74 66 60 77 88 86 66 59 49 47 53 57 51 47 49 53 62 62 58
31 35 35 31 30 25 18 28 46 52 58 52 58 57 66 79 97 96 99 97 97 97 89 89 91 99 96 92 93 78 75 63 74 80 88 78 65 56 42 38 38 41 41 42 47 45 57 62 62
30 32 30 30 27 23 15 26 35 51 54 60 57 58 56 80 97 99 99 99 100 88 70 62 83 84 89 93 99 88 76 97 65 82 86 70 66 51 40 39 39 37 35 40 45 39 41 52 59
22 31 36 30 22 17 17 21 38 46 64 62 66 67 64 93 100 100 100 100 99 100 99 89 95 90 92 92 93 98 91 92 83 86 83 74 72 53 42 40 41 42 39 43 38 37 38 43 58
26 33 28 22 17 19 18 19 43 51 61 62 66 73 71 95 96 98 97 99 100 100 100 100 96 92 99 100 100 96 91 95 99 88 91 83 72 52 43 43 45 47 42 38 38 37 35 43 58
25 29 23 18 18 19 21 26 43 51 62 58 59 65 91 96 99 95 99 100 97 99 100 93 91 88 92 92 99 100 95 81 100 99 99 82 70 60 50 46 48 50 40 35 36 37 34 31 43
20 20 18 18 18 25 28 36 60 59 55 57 56 71 86 96 96 97 99 100 99 100 100 96 100 92 97 98 87 79 88 98 99 98 96 86 67 61 53 47 50 50 46 46 48 44 38 33 31
20 18 20 21 23 28 25 35 57 71 76 74 80 89 94 93 97 100 100 99 100 100 100 100 100 100 99 96 80 70 77 74 74 61 77 71 58 53 51 48 49 51 48 49 51 48 46 37 31
22 23 25 23 24 26 42 58 50 58 79 65 63 94 96 96 98 98 100 100 100 100 100 100 100 100 95 97 94 90 74 58 57 59 59 66 53 48 52 48 49 51 49 50 54 55 48 34 29
23 26 27 24 22 25 26 41 50 55 80 72 70 94 92 92 95 97 99 99 100 100 99 100 100 100 97 92 87 92 89 78 63 64 58 68 54 46 49 47 50 53 50 53 57 55 46 37 33
28 28 31 22 24 25 24 31 35 78 74 72 84 96 88 84 93 100 99 100 100 100 98 100 100 100 98 95 89 89 75 80 83 68 72 66 52 45 46 48 51 52 52 55 58 57 49 42 36
37 39 35 31 24 25 32 32 34 71 72 76 95 97 89 92 93 98 100 100 99 100 100 100 100 100 96 90 89 83 72 60 68 59 58 57 48 46 45 49 50 53 54 55 60 59 53 46 40
43 41 35 35 29 33 38 41 59 75 80 87 97 98 96 91 86 91 100 99 100 100 100 100 100 98 92 90 85 84 74 64 68 63 52 48 46 50 51 50 53 59 57 56 63 61 56 52 45
33 36 39 33 27 30 34 36 44 72 76 83 96 99 97 95 83 88 98 99 100 100 100 100 98 90 82 82 86 80 74 74 74 73 72 73 71 64 59 66 63 62 60 62 62 62 58 55 48
37 40 40 33 27 31 33 34 30 70 70 68 86 97 94 94 96 90 90 97 100 100 100 100 100 91 83 82 85 84 79 71 68 69 62 64 59 58 73 75 73 67 68 66 63 64 60 56 53
39 42 40 37 29 26 28 32 31 52 61 69 69 82 86 90 91 81 88 90 95 96 98 100 99 91 87 82 75 62 65 63 52 51 58 53 53 60 65 70 71 72 71 66 64 63 60 59 58
43 34 34 34 36 42 29 47 36 40 65 71 64 79 85 86 89 86 85 89 92 94 97 96 95 96 91 86 77 66 62 59 47 41 42 44 45 52 60 64 65 65 72 72 68 66 64 64 60
37 32 36 36 37 36 35 46 40 40 57 60 69 70 76 79 85 93 93 95 98 99 98 98 91 92 90 86 81 72 68 64 53 45 42 38 38 39 50 61 67 72 72 72 75 72 70 70 63
30 32 32 41 42 51 39 44 44 44 38 43 55 62 67 76 82 84 88 94 99 100 100 100 91 87 85 82 77 72 71 66 61 57 51 42 44 39 50 60 70 71 67 72 80 83 81 75 70
33 35 55 55 59 57 40 52 40 32 32 39 50 58 63 68 79 83 88 90 91 96 97 98 95 90 84 78 73 68 65 67 70 64 56 53 54 58 63 70 75 66 69 75 81 86 91 90 75
37 40 64 56 64 56 49 61 44 29 28 30 40 46 56 66 72 78 78 81 81 85 88 87 85 82 79 76 74 69 73 76 77 76 73 71 76 75 67 61 66 69 78 81 82 92 92 84 81
33 44 31 50 62 74 59 49 34 22 23 33 40 54 57 64 69 72 72 75 75 74 78 80 78 75 74 75 73 73 72 82 86 86 81 76 74 71 68 66 65 73 84 87 95 100 95 89 85
27 33 48 62 69 75 62 54 50 33 24 23 41 54 55 57 64 64 66 72 73 68 68 72 73 71 70 72 72 72 77 85 88 89 86 80 77 81 82 81 84 91 96 100 100 100 96 89 88
36 39 38 44 64 63 68 58 41 37 28 23 30 52 55 57 58 60 60 61 68 70 64 67 70 69 69 68 70 75 76 85 90 91 88 81 78 78 82 84 92 98 96 98 98 100 100 96 94
23 29 39 54 55 63 64 46 28 33 34 32 25 32 52 52 52 52 54 56 60 66 69 64 66 67 68 66 62 70 72 77 82 89 89 84 87 87 86 88 81 95 100 100 100 100 98 96 98

GFSSGP_925_rhum_084.txt.gz
RH
19 22 30 25 25 35 34 31 24 28 33 42 44 49 45 54 47 45 54 63 86 100 91 74 80 83 68 62 94 70 66 62 63 61 63 82 82 80 82 83 86 87 87 88 89 89 86 89 92
25 33 31 34 34 38 32 27 25 38 37 50 44 50 61 60 67 66 62 56 66 90 100 88 71 66 60 57 72 80 78 77 66 61 68 74 86 79 84 91 90 88 89 87 90 94 94 89 87
28 36 31 40 45 36 34 26 23 29 42 45 44 54 57 71 66 67 72 78 75 99 100 99 89 79 64 55 57 86 96 90 81 59 48 68 78 80 89 90 87 84 86 85 93 95 95 69 44
24 27 30 33 29 28 26 23 24 26 45 56 51 53 56 61 56 58 53 64 83 100 100 98 92 94 87 64 54 52 58 54 57 62 59 73 84 88 92 87 86 85 88 88 93 96 68 53 35
25 32 35 32 30 26 24 22 21 32 37 55 56 49 55 62 66 77 92 78 79 85 89 98 79 86 92 93 88 80 74 77 80 80 80 80 83 89 90 87 85 86 83 78 76 68 61 38 38
32 32 35 31 28 24 23 21 33 35 48 55 58 56 60 71 73 84 89 96 80 69 61 89 83 77 91 87 90 85 78 87 89 71 68 76 82 88 91 89 87 80 56 53 59 63 55 48 35
30 36 33 31 31 27 19 23 43 45 53 55 58 61 61 70 85 95 97 98 90 74 73 81 78 97 84 80 76 91 82 77 90 87 75 67 71 88 92 93 76 54 50 54 62 62 54 54 43
33 34 33 33 29 26 19 25 36 50 51 61 58 59 53 68 90 100 94 99 99 85 68 68 76 79 89 84 91 72 72 68 88 86 74 52 70 85 84 79 55 51 50 55 62 62 59 57 51
25 33 39 30 27 21 17 20 37 46 60 66 69 66 63 84 98 100 100 99 100 100 96 73 79 80 99 97 90 88 82 80 90 94 63 57 71 72 68 55 46 48 43 45 57 62 60 61 56
28 37 31 26 22 19 20 20 21 51 61 64 64 70 69 94 100 98 96 99 100 99 89 91 96 96 98 99 97 99 85 78 82 96 84 57 64 54 50 52 43 45 40 40 43 53 63 60 58
27 31 26 22 22 21 22 24 44 53 58 61 59 68 77 95 99 92 92 93 99 99 95 97 93 97 86 89 95 100 94 85 91 100 87 64 59 53 54 55 46 42 39 38 42 47 56 50 52
23 23 21 19 19 23 29 29 52 55 44 67 59 73 90 94 98 91 94 99 100 100 100 100 98 93 98 100 84 100 100 95 89 84 69 71 59 53 52 53 43 39 40 37 36 40 45 47 50
23 21 21 22 25 27 27 32 47 68 62 85 92 92 88 88 94 96 95 100 100 100 100 100 100 100 99 90 100 100 100 97 85 83 72 66 53 51 50 51 42 38 42 38 35 33 34 38 46
22 23 27 27 26 25 30 41 52 47 80 69 80 98 87 87 93 93 99 100 100 99 100 100 100 100 96 85 95 96 89 87 80 62 62 61 50 51 50 52 50 46 49 48 45 46 42 35 37
25 30 30 26 23 24 33 34 65 52 84 79 73 94 91 97 99 93 93 99 99 100 100 100 100 100 98 100 90 86 86 67 70 59 56 52 48 50 47 51 53 50 50 50 50 47 38 31 33
29 32 35 21 24 25 27 37 29 75 88 88 79 98 96 95 96 94 96 100 99 100 100 100 100 100 98 99 98 94 88 80 66 57 59 59 49 49 46 50 53 53 54 56 55 51 41 35 32
40 40 35 33 26 27 30 36 34 79 74 72 78 99 94 90 82 96 97 100 99 100 100 100 99 100 99 94 90 88 90 77 61 55 55 61 51 48 50 51 52 52 56 60 57 54 50 41 36
45 42 39 41 30 30 36 41 32 75 77 78 87 98 97 94 80 93 100 100 100 99 100 99 100 94 93 96 97 86 92 76 67 61 61 61 53 48 51 50 52 55 55 61 60 58 53 47 42
35 37 39 37 29 29 34 36 32 60 83 86 93 97 97 97 76 92 99 100 100 100 100 99 99 100 98 93 94 90 87 70 57 54 50 60 61 49 52 50 53 57 55 56 63 61 58 54 48
37 40 42 36 30 32 32 35 32 47 71 78 90 94 94 97 88 83 98 100 100 99 100 100 100 99 99 96 92 91 77 70 71 70 67 63 55 50 52 50 56 56 59 63 62 63 63 60 55
43 43 42 35 37 33 34 38 31 36 66 69 79 86 89 91 97 85 86 98 100 100 99 99 100 96 91 90 94 92 77 75 85 75 52 68 63 61 61 70 71 68 66 66 68 65 65 63 59
46 38 36 38 40 51 33 54 38 30 37 71 74 92 90 91 93 90 83 86 94 99 97 98 98 93 85 82 84 78 76 73 70 66 70 77 75 76 62 70 65 67 75 73 70 68 66 65 63
35 35 41 40 44 42 40 52 39 35 41 40 68 77 84 86 91 92 88 87 86 87 95 95 98 94 87 76 80 74 72 65 59 63 56 58 54 51 52 51 55 65 68 72 72 71 68 68 65
32 36 38 44 49 63 46 44 42 38 39 37 42 65 79 83 86 91 88 88 90 91 93 95 98 97 92 87 81 74 65 64 62 58 50 47 48 47 43 41 47 67 68 71 73 73 74 72 70
37 42 57 59 66 64 42 50 35 31 32 33 34 53 69 78 82 90 96 94 97 96 96 98 100 98 96 90 83 72 69 60 56 58 55 47 44 45 44 46 53 60 61 68 78 78 82 81 83
43 44 70 60 67 55 51 60 46 35 32 31 34 46 65 77 79 82 88 93 98 99 99 99 100 99 95 93 90 84 81 76 71 69 68 60 54 46 45 46 53 53 57 63 75 84 87 89 94
35 49 37 53 64 73 60 48 36 30 25 27 36 56 70 75 79 80 79 83 90 96 100 100 99 94 90 88 88 87 85 81 78 74 71 70 64 59 54 54 58 65 71 78 88 95 92 98 99
30 36 48 64 64 71 63 58 46 36 32 26 34 52 58 70 77 79 79 79 81 82 87 89 88 86 83 80 80 81 79 74 71 72 70 67 60 59 64 70 74 77 79 81 88 98 99 97 97
37 36 41 49 62 60 66 61 48 34 32 32 27 40 54 65 74 73 73 74 77 77 78 82 82 80 78 75 74 73 69 67 65 69 70 67 68 74 80 82 78 80 82 96 100 100 99 90 88
28 30 33 45 57 67 60 42 30 35 33 31 29 27 44 60 66 68 70 72 78 79 76 79 80 78 71 68 65 60 61 66 69 73 69 73 76 83 92 88 87 87 89 100 100 100 100 93 94

GFSSGP_925_rhum_087.txt.gz
RH
20 23 30 21 18 22 23 22 22 21 26 33 37 42 35 40 37 33 58 65 87 90 97 82 79 80 98 98 92 78 68 68 70 67 78 48 71 86 86 83 87 88 88 87 86 87 89 96 97
26 32 29 24 21 21 20 21 21 20 25 40 42 48 51 39 56 56 63 71 68 97 93 99 79 75 92 98 95 87 85 68 70 88 86 73 80 81 81 81 87 86 87 87 86 88 91 94 97
33 35 22 24 28 21 20 20 17 18 26 30 37 47 45 50 58 59 74 69 72 92 99 98 85 77 82 100 100 95 94 80 88 85 68 65 78 83 80 88 87 84 87 84 88 92 90 90 73
28 22 22 23 22 21 20 16 18 18 30 44 44 44 45 49 53 63 60 69 74 84 99 100 88 75 80 99 100 98 90 89 88 84 73 78 73 85 80 87 83 81 80 88 94 78 35 36 34
24 22 24 25 24 21 20 18 20 20 28 48 45 40 46 57 62 67 72 79 83 85 98 100 88 88 89 97 99 98 88 79 69 75 71 84 86 80 78 80 82 87 87 88 96 47 34 30 43
23 23 24 22 21 20 19 18 19 28 28 47 52 50 44 66 68 68 83 82 85 92 99 99 70 73 97 82 94 98 95 71 62 67 83 89 85 72 78 81 87 85 86 92 66 39 34 30 35
21 23 22 24 25 23 18 19 31 29 36 38 46 44 48 62 73 89 96 98 99 91 93 98 76 92 70 93 79 68 83 73 78 80 89 88 73 76 81 86 83 75 85 75 57 43 33 41 37
23 23 30 28 24 20 17 18 23 30 24 52 48 46 45 56 89 86 88 96 99 89 81 74 85 89 80 98 96 76 66 89 84 82 92 88 82 81 80 84 71 59 64 68 54 49 42 43 45
22 24 27 24 25 19 17 17 27 43 42 54 52 57 56 88 93 95 92 92 98 99 95 98 94 86 87 82 88 92 92 93 97 99 94 88 95 95 82 76 53 56 65 63 54 52 50 48 48
21 26 24 21 20 18 17 20 18 32 42 43 51 60 72 91 93 88 89 90 95 98 98 98 94 86 84 89 89 91 100 98 98 100 96 98 99 92 79 58 53 57 62 62 58 57 54 61 75
24 21 23 20 18 17 19 20 20 33 29 38 36 49 65 91 90 89 89 93 95 97 100 100 98 97 100 99 96 100 99 100 96 98 98 100 96 81 66 55 54 53 65 80 73 64 74 64 74
25 21 21 18 17 21 23 24 37 39 26 54 47 51 69 84 84 86 88 88 100 100 100 100 100 100 95 94 92 100 94 94 96 89 100 96 87 73 67 57 56 47 78 87 88 78 62 54 49
24 20 20 18 19 23 23 23 25 34 51 63 65 67 75 80 85 88 91 94 99 100 100 100 99 98 90 96 98 99 100 97 94 96 94 87 76 58 48 44 41 43 45 53 63 57 58 54 50
23 21 20 23 23 22 22 27 49 37 61 80 79 77 76 76 79 85 93 96 99 100 100 100 100 93 95 100 100 100 100 100 89 89 74 79 71 50 45 42 41 40 43 47 51 46 52 54 47
26 28 26 23 21 21 24 27 36 36 70 70 78 76 72 74 89 84 85 96 96 100 100 100 99 94 97 98 100 100 100 100 87 94 77 58 51 47 44 42 43 41 36 34 36 36 47 46 46
29 30 28 20 24 27 25 27 24 46 68 68 74 78 79 84 83 84 92 97 99 100 100 100 99 94 98 95 100 100 99 100 99 90 70 47 46 49 50 40 42 49 46 44 44 42 46 44 40
34 28 29 23 26 28 28 28 22 58 67 68 73 88 85 79 76 84 94 100 99 100 100 99 100 96 96 98 100 100 93 97 87 83 62 48 45 49 51 51 49 52 50 50 49 41 37 38 38
26 38 36 30 27 27 26 28 24 34 52 50 60 73 79 78 72 83 90 100 99 99 100 100 100 98 96 93 97 92 96 90 89 79 73 50 46 50 47 53 54 54 56 56 54 47 42 40 37
29 34 33 30 27 27 23 27 24 25 50 57 65 75 79 78 68 82 94 99 99 99 100 100 99 100 96 90 96 98 93 86 78 73 58 69 60 55 51 52 56 54 58 56 57 55 50 47 41
33 35 34 29 28 30 26 26 24 33 38 42 55 68 74 77 74 78 93 100 100 99 99 100 100 98 99 99 92 90 87 93 79 71 63 66 61 54 56 52 49 58 56 58 60 61 66 68 49
38 38 35 32 31 28 32 30 26 26 44 50 57 55 66 71 74 73 84 92 98 100 99 100 100 100 95 94 94 89 86 81 68 65 75 63 58 47 46 49 51 53 54 56 59 62 67 68 62
40 34 33 34 34 28 32 39 30 24 24 46 44 63 62 70 69 67 77 88 95 96 100 100 100 100 100 93 90 87 77 82 74 60 57 65 53 52 58 54 51 51 51 66 60 61 65 69 71
32 32 35 34 37 39 34 41 31 30 25 24 32 50 61 65 69 70 73 78 84 91 98 99 100 98 99 99 89 88 76 69 84 78 68 74 70 63 57 54 56 62 67 68 71 72 74 70 76
32 33 37 44 43 53 40 40 31 25 24 27 31 43 56 63 68 64 71 78 81 89 94 98 98 96 93 94 91 84 80 74 77 80 73 67 64 67 73 77 72 74 75 74 72 72 75 74 75
32 41 48 56 58 48 38 44 32 26 25 26 23 31 51 59 65 68 69 75 78 84 89 94 95 93 94 88 86 85 79 74 72 72 66 65 57 69 63 62 67 65 60 60 61 68 72 77 82
41 39 45 43 53 42 45 42 30 27 27 28 29 29 45 60 61 64 65 70 78 81 88 90 93 93 96 93 86 85 79 78 74 71 67 69 68 63 53 53 53 51 50 52 55 67 76 89 91
41 46 32 48 61 58 44 42 33 26 26 24 24 38 51 59 61 60 64 70 75 80 88 93 94 97 96 94 92 89 82 82 77 73 70 70 66 66 58 52 52 49 51 57 72 87 92 97 98
30 35 47 46 45 48 45 49 32 31 27 28 25 32 45 59 64 60 62 70 74 78 85 98 98 99 90 91 93 91 88 82 80 76 72 67 59 58 68 68 60 62 61 69 81 98 99 100 100
32 32 39 40 48 41 46 43 41 30 25 27 27 26 36 54 60 62 60 64 70 77 82 92 97 90 87 87 90 91 90 91 87 84 82 78 77 77 75 72 75 63 68 76 87 93 94 100 100
26 31 30 40 37 59 51 37 29 33 32 31 28 26 24 38 53 58 61 65 69 74 77 80 85 84 83 83 85 87 87 88 89 88 85 84 78 73 66 66 68 64 69 74 86 96 100 99 100